FW4770 Weather Reports


Display with metric or nautical units.
time (UTC)temp
F
wind
direction
speed
MPH
gust
MPH
rain 1hr
in
rain 24hr
in
rain mn
in
humidity
%
barometer
mb
20260505191915 50 28 7.0 15.0 0.00 0.00 0.00 47 1011.4
20260505191819 50 59 8.0 15.0 0.00 0.00 0.00 46 1011.4
20260505191728 50 324 7.0 15.0 0.00 0.00 0.00 46 1011.4
20260505191605 50 355 6.0 15.0 0.00 0.00 0.00 47 1011.5
20260505191509 50 355 9.0 15.0 0.00 0.00 0.00 46 1011.5
20260505191433 50 13 10.0 15.0 0.00 0.00 0.00 48 1011.4
20260505191336 49 19 9.0 15.0 0.00 0.00 0.00 49 1011.4
20260505191218 49 342 7.0 15.0 0.00 0.00 0.00 46 1011.4
20260505191106 49 15 6.0 15.0 0.00 0.00 0.00 47 1011.5
20260505191009 49 355 6.0 15.0 0.00 0.00 0.00 47 1011.4
20260505190914 49 360 7.0 18.0 0.00 0.00 0.00 48 1011.5
20260505190818 49 346 8.0 18.0 0.00 0.00 0.00 45 1011.4
20260505190742 49 301 10.0 18.0 0.00 0.00 0.00 47 1011.4
20260505190606 49 305 10.0 18.0 0.00 0.00 0.00 47 1011.4
20260505190530 48 286 7.0 18.0 0.00 0.00 0.00 48 1011.5
20260505190416 48 17 8.0 18.0 0.00 0.00 0.00 48 1011.4
20260505190319 48 19 8.0 18.0 0.00 0.00 0.00 48 1011.4
20260505190204 48 335 6.0 18.0 0.00 0.00 0.00 47 1011.5
20260505190128 48 344 10.0 18.0 0.00 0.00 0.00 48 1011.5
20260505190030 48 27 11.0 18.0 0.00 0.00 0.00 45 1011.5
20260505185905 48 12 11.0 17.0 0.00 0.00 0.00 46 1011.7
20260505185809 48 348 10.0 20.0 0.00 0.00 0.00 46 1011.7
20260505185718 48 360 9.0 24.0 0.00 0.00 0.00 47 1011.6
20260505185623 48 347 8.0 24.0 0.00 0.00 0.00 49 1011.5
20260505185527 48 317 8.0 24.0 0.00 0.00 0.00 50 1011.7
20260505185405 48 291 8.0 24.0 0.00 0.00 0.00 48 1011.6
20260505185330 48 306 9.0 24.0 0.00 0.00 0.00 48 1011.5
20260505185207 48 309 12.0 24.0 0.00 0.00 0.00 46 1011.5
20260505185114 48 305 13.0 24.0 0.00 0.00 0.00 45 1011.6
20260505185039 48 292 14.0 24.0 0.00 0.00 0.00 46 1011.7
20260505184923 48 355 15.0 24.0 0.00 0.00 0.00 46 1011.6
20260505184808 49 288 12.0 18.0 0.00 0.00 0.00 46 1011.5
20260505184712 49 313 11.0 18.0 0.00 0.00 0.00 46 1011.5
20260505184616 49 327 10.0 18.0 0.00 0.00 0.00 48 1011.4
20260505184525 49 45 9.0 18.0 0.00 0.00 0.00 46 1011.5
20260505184409 49 355 8.0 18.0 0.00 0.00 0.00 46 1011.4
20260505184313 49 355 7.0 22.0 0.00 0.00 0.00 45 1011.4
20260505184238 49 337 8.0 22.0 0.00 0.00 0.00 45 1011.5
20260505184121 49 339 9.0 22.0 0.00 0.00 0.00 45 1011.5
20260505184006 49 306 11.0 22.0 0.00 0.00 0.00 45 1011.5
20260505183911 49 334 11.0 22.0 0.00 0.00 0.00 45 1011.6
20260505183819 49 346 10.0 22.0 0.00 0.00 0.00 46 1011.6
20260505183723 49 333 10.0 22.0 0.00 0.00 0.00 47 1011.6
20260505183609 49 11 12.0 22.0 0.00 0.00 0.00 46 1011.5
20260505183512 49 311 11.0 22.0 0.00 0.00 0.00 49 1011.6
20260505183415 49 327 10.0 17.0 0.00 0.00 0.00 46 1011.4
20260505183320 49 331 11.0 17.0 0.00 0.00 0.00 45 1011.6
20260505183249 48 360 11.0 16.0 0.00 0.00 0.00 47 1011.6
20260505183105 48 5 9.0 16.0 0.00 0.00 0.00 46 1011.6
20260505183030 48 337 9.0 16.0 0.00 0.00 0.00 46 1011.6
20260505182907 48 13 9.0 16.0 0.00 0.00 0.00 47 1011.5
20260505182812 48 336 9.0 16.0 0.00 0.00 0.00 46 1011.4
20260505182716 48 311 10.0 16.0 0.00 0.00 0.00 46 1011.6
20260505182623 48 313 8.0 16.0 0.00 0.00 0.00 48 1011.5
20260505182508 48 16 7.0 16.0 0.00 0.00 0.00 47 1011.5
20260505182432 48 333 9.0 16.0 0.00 0.00 0.00 50 1011.4
20260505182315 48 342 10.0 16.0 0.00 0.00 0.00 48 1011.5
20260505182239 48 310 10.0 16.0 0.00 0.00 0.00 47 1011.4
20260505182123 48 317 9.0 15.0 0.00 0.00 0.00 46 1011.4
20260505182023 48 329 9.0 15.0 0.00 0.00 0.00 48 1011.4
20260505181932 48 296 10.0 15.0 0.00 0.00 0.00 47 1011.4
20260505181814 48 332 10.0 15.0 0.00 0.00 0.00 49 1011.4
20260505181717 48 313 10.0 15.0 0.00 0.00 0.00 48 1011.6
20260505181622 48 325 10.0 15.0 0.00 0.00 0.00 47 1011.6
20260505181526 48 330 10.0 16.0 0.00 0.00 0.00 48 1011.5
20260505181410 48 329 9.0 16.0 0.00 0.00 0.00 47 1011.5
20260505181315 48 346 7.0 16.0 0.00 0.00 0.00 48 1011.4
20260505181244 47 345 8.0 16.0 0.00 0.00 0.00 48 1011.4
20260505181128 47 360 9.0 16.0 0.00 0.00 0.00 48 1011.6
20260505181051 47 30 10.0 16.0 0.00 0.00 0.00 50 1011.4
20260505180907 47 338 9.0 16.0 0.00 0.00 0.00 48 1011.4
20260505180811 47 351 9.0 16.0 0.00 0.00 0.00 49 1011.4
20260505180716 47 348 8.0 16.0 0.00 0.00 0.00 49 1011.5
20260505180605 47 5 6.0 15.0 0.00 0.00 0.00 48 1011.4
20260505180509 47 314 8.0 15.0 0.00 0.00 0.00 47 1011.3
20260505180431 47 328 10.0 15.0 0.00 0.00 0.00 48 1011.3
20260505180309 47 294 9.0 15.0 0.00 0.00 0.00 48 1011.4
20260505180214 47 326 8.0 15.0 0.00 0.00 0.00 48 1011.4
20260505180116 47 348 7.0 17.0 0.00 0.00 0.00 48 1011.4
20260505180021 47 334 7.0 17.0 0.00 0.00 0.00 48 1011.4
20260505175930 47 338 9.0 17.0 0.00 0.00 0.00 47 1011.5
20260505175807 47 345 9.0 19.0 0.00 0.00 0.00 47 1011.5
20260505175731 47 348 10.0 19.0 0.00 0.00 0.00 46 1011.4
20260505175611 47 333 11.0 19.0 0.00 0.00 0.00 47 1011.3
20260505175512 47 344 12.0 19.0 0.00 0.00 0.00 46 1011.4
20260505175413 47 339 12.0 20.0 0.00 0.00 0.00 45 1011.4
20260505175315 47 355 11.0 20.0 0.00 0.00 0.00 47 1011.4
20260505175223 47 318 10.0 20.0 0.00 0.00 0.00 48 1011.5
20260505175123 47 325 12.0 20.0 0.00 0.00 0.00 47 1011.5
20260505175026 47 330 14.0 20.0 0.00 0.00 0.00 46 1011.4
20260505174907 47 360 13.0 20.0 0.00 0.00 0.00 47 1011.4
20260505174811 47 5 14.0 20.0 0.00 0.00 0.00 47 1011.5
20260505174716 47 340 14.0 20.0 0.00 0.00 0.00 48 1011.7
20260505174645 47 355 13.0 20.0 0.00 0.00 0.00 47 1011.4
20260505174548 47 20 13.0 20.0 0.00 0.00 0.00 47 1011.4
20260505174405 47 360 13.0 19.0 0.00 0.00 0.00 47 1011.4
20260505174309 47 38 12.0 19.0 0.00 0.00 0.00 48 1011.4
20260505174214 47 346 10.0 19.0 0.00 0.00 0.00 47 1011.6
20260505174117 47 329 11.0 19.0 0.00 0.00 0.00 47 1011.6
20260505174021 48 27 13.0 19.0 0.00 0.00 0.00 46 1011.6
20260505173926 48 328 13.0 19.0 0.00 0.00 0.00 45 1011.6
20260505173808 48 336 10.0 17.0 0.00 0.00 0.00 47 1011.5
20260505173712 48 11 9.0 13.0 0.00 0.00 0.00 46 1011.4
20260505173615 48 303 8.0 15.0 0.00 0.00 0.00 47 1011.4
20260505173518 48 313 7.0 15.0 0.00 0.00 0.00 49 1011.3
20260505173441 48 327 8.0 15.0 0.00 0.00 0.00 48 1011.3
20260505173343 48 309 8.0 15.0 0.00 0.00 0.00 49 1011.3
20260505173250 48 301 7.0 15.0 0.00 0.00 0.00 47 1011.3
20260505173107 48 12 6.0 16.0 0.00 0.00 0.00 48 1011.3
20260505173010 48 38 8.0 16.0 0.00 0.00 0.00 48 1011.4
20260505172915 48 32 10.0 16.0 0.00 0.00 0.00 47 1011.3
20260505172839 48 345 8.0 16.0 0.00 0.00 0.00 47 1011.4
20260505172721 48 5 4.0 16.0 0.00 0.00 0.00 49 1011.3
20260505172609 48 194 5.0 16.0 0.00 0.00 0.00 47 1011.3
20260505172513 48 355 8.0 16.0 0.00 0.00 0.00 49 1011.3
20260505172418 48 5 8.0 16.0 0.00 0.00 0.00 48 1011.3
20260505172322 48 337 8.0 16.0 0.00 0.00 0.00 51 1011.3
20260505172206 48 284 9.0 16.0 0.00 0.00 0.00 48 1011.3
20260505172110 48 340 9.0 16.0 0.00 0.00 0.00 47 1011.3
20260505172018 47 346 8.0 16.0 0.00 0.00 0.00 48 1011.3
20260505171921 47 329 8.0 16.0 0.00 0.00 0.00 48 1011.4
20260505171824 47 325 10.0 16.0 0.00 0.00 0.00 47 1011.4
20260505171728 47 347 10.0 16.0 0.00 0.00 0.00 47 1011.4
20260505171610 47 355 9.0 16.0 0.00 0.00 0.00 52 1011.5
20260505171513 47 292 7.0 16.0 0.00 0.00 0.00 50 1011.4
20260505171417 47 20 7.0 16.0 0.00 0.00 0.00 50 1011.6
20260505171305 47 331 8.0 16.0 0.00 0.00 0.00 50 1011.5
20260505171208 47 15 8.0 16.0 0.00 0.00 0.00 50 1011.5
20260505171113 47 16 8.0 16.0 0.00 0.00 0.00 48 1011.5
20260505171037 47 304 10.0 17.0 0.00 0.00 0.00 49 1011.5
20260505170920 47 322 9.0 17.0 0.00 0.00 0.00 48 1011.6
20260505170844 47 322 8.0 18.0 0.00 0.00 0.00 50 1011.5
20260505170710 47 303 9.0 18.0 0.00 0.00 0.00 48 1011.5
20260505170615 47 360 10.0 18.0 0.00 0.00 0.00 49 1011.6
20260505170519 47 336 10.0 18.0 0.00 0.00 0.00 48 1011.6
20260505170442 47 312 9.0 18.0 0.00 0.00 0.00 49 1011.5
20260505170325 47 314 10.0 19.0 0.00 0.00 0.00 48 1011.4
20260505170228 47 308 11.0 19.0 0.00 0.00 0.00 49 1011.5
20260505170105 47 333 11.0 19.0 0.00 0.00 0.00 48 1011.6
20260505170012 47 339 9.0 19.0 0.00 0.00 0.00 48 1011.6
20260505165914 47 325 9.0 19.0 0.00 0.00 0.00 47 1011.4
20260505165816 47 355 9.0 19.0 0.00 0.00 0.00 49 1011.6
20260505165740 47 314 10.0 19.0 0.00 0.00 0.00 50 1011.5
20260505165642 47 314 13.0 19.0 0.00 0.00 0.00 49 1011.7
20260505165505 47 345 9.0 19.0 0.00 0.00 0.00 51 1011.7
20260505165409 46 18 6.0 15.0 0.00 0.00 0.00 52 1011.6
20260505165317 46 11 7.0 13.0 0.00 0.00 0.00 50 1011.5
20260505165220 46 346 6.0 13.0 0.00 0.00 0.00 52 1011.6
20260505165144 46 355 5.0 13.0 0.00 0.00 0.00 52 1011.7
20260505165028 46 325 7.0 13.0 0.00 0.00 0.00 51 1011.7
20260505164904 46 5 9.0 13.0 0.00 0.00 0.00 49 1011.6
20260505164809 46 355 8.0 13.0 0.00 0.00 0.00 50 1011.6
20260505164717 46 49 7.0 13.0 0.00 0.00 0.00 50 1011.7
20260505164620 46 15 8.0 13.0 0.00 0.00 0.00 50 1011.6
20260505164523 46 317 9.0 13.0 0.00 0.00 0.00 49 1011.7
20260505164428 46 328 9.0 13.0 0.00 0.00 0.00 51 1011.6
20260505164305 46 335 5.0 13.0 0.00 0.00 0.00 52 1011.6
20260505164210 46 350 3.0 14.0 0.00 0.00 0.00 52 1011.6
20260505164117 46 309 4.0 15.0 0.00 0.00 0.00 53 1011.6
20260505164021 46 294 6.0 15.0 0.00 0.00 0.00 51 1011.6
20260505163945 46 325 6.0 15.0 0.00 0.00 0.00 51 1011.6
20260505163808 46 306 6.0 15.0 0.00 0.00 0.00 49 1011.6
20260505163711 46 5 7.0 15.0 0.00 0.00 0.00 50 1011.6
20260505163616 46 5 6.0 15.0 0.00 0.00 0.00 51 1011.6
20260505163520 46 22 8.0 15.0 0.00 0.00 0.00 51 1011.6
20260505163427 46 355 9.0 15.0 0.00 0.00 0.00 50 1011.6
20260505163329 46 355 6.0 15.0 0.00 0.00 0.00 52 1011.7
20260505163213 46 314 5.0 13.0 0.00 0.00 0.00 52 1011.6
20260505163118 46 334 8.0 16.0 0.00 0.00 0.00 50 1011.5
20260505163022 46 344 7.0 19.0 0.00 0.00 0.00 52 1011.6
20260505162906 46 331 6.0 19.0 0.00 0.00 0.00 51 1011.6
20260505162830 46 342 6.0 19.0 0.00 0.00 0.00 51 1011.5
20260505162717 46 9 6.0 19.0 0.00 0.00 0.00 50 1011.4
20260505162622 46 355 6.0 19.0 0.00 0.00 0.00 49 1011.6
20260505162526 46 40 7.0 19.0 0.00 0.00 0.00 50 1011.4
20260505162409 46 315 10.0 19.0 0.00 0.00 0.00 50 1011.5
20260505162332 46 10 13.0 19.0 0.00 0.00 0.00 48 1011.5
20260505162212 47 17 14.0 19.0 0.00 0.00 0.00 48 1011.4
20260505162117 47 347 12.0 19.0 0.00 0.00 0.00 49 1011.2
20260505162005 47 351 8.0 18.0 0.00 0.00 0.00 50 1011.3
20260505161909 47 351 9.0 19.0 0.00 0.00 0.00 51 1011.4
20260505161833 47 53 9.0 20.0 0.00 0.00 0.00 49 1011.5
20260505161716 47 51 9.0 20.0 0.00 0.00 0.00 52 1011.4
20260505161619 47 345 9.0 20.0 0.00 0.00 0.00 50 1011.4
20260505161522 47 23 9.0 20.0 0.00 0.00 0.00 49 1011.5
20260505161429 47 56 8.0 20.0 0.00 0.00 0.00 50 1011.4
20260505161352 47 348 10.0 20.0 0.00 0.00 0.00 49 1011.7
20260505161207 47 314 14.0 20.0 0.00 0.00 0.00 50 1011.6
20260505161110 47 350 15.0 20.0 0.00 0.00 0.00 49 1011.4
20260505161033 47 32 12.0 22.0 0.00 0.00 0.00 52 1011.8
20260505160915 46 360 8.0 22.0 0.00 0.00 0.00 52 1011.5
20260505160818 46 35 8.0 22.0 0.00 0.00 0.00 54 1011.5
20260505160706 46 20 9.0 22.0 0.00 0.00 0.00 52 1011.8
20260505160628 46 355 11.0 22.0 0.00 0.00 0.00 53 1011.4
20260505160531 46 319 12.0 22.0 0.00 0.00 0.00 50 1011.6
20260505160406 46 355 14.0 22.0 0.00 0.00 0.00 50 1011.7
20260505160309 46 321 17.0 22.0 0.00 0.00 0.00 50 1011.4
20260505160233 46 320 15.0 22.0 0.00 0.00 0.00 53 1011.3
20260505160114 46 317 10.0 19.0 0.00 0.00 0.00 53 1011.2
20260505153339 45 24 8.0 16.0 0.00 0.00 0.00 51 1011.7
20260505153223 45 343 10.0 16.0 0.00 0.00 0.00 50 1011.5
20260505153108 45 360 8.0 16.0 0.00 0.00 0.00 51 1011.6
20260505153012 45 30 8.0 16.0 0.00 0.00 0.00 50 1011.6
20260505152932 45 5 10.0 16.0 0.00 0.00 0.00 50 1011.7
20260505152806 45 350 10.0 16.0 0.00 0.00 0.00 51 1011.6
20260505152731 45 355 10.0 16.0 0.00 0.00 0.00 51 1011.6
20260505152633 45 21 11.0 16.0 0.00 0.00 0.00 51 1011.7
20260505152536 45 312 11.0 16.0 0.00 0.00 0.00 53 1011.6
20260505152418 45 29 10.0 19.0 0.00 0.00 0.00 53 1011.6
20260505152305 45 10 10.0 19.0 0.00 0.00 0.00 51 1011.4
20260505152228 45 5 7.0 19.0 0.00 0.00 0.00 51 1011.6
20260505152131 45 340 7.0 19.0 0.00 0.00 0.00 51 1011.4
20260505152007 45 323 7.0 19.0 0.00 0.00 0.00 51 1011.4
20260505151910 46 295 7.0 19.0 0.00 0.00 0.00 53 1011.4
20260505151813 46 288 9.0 19.0 0.00 0.00 0.00 53 1011.4
20260505151716 46 5 12.0 19.0 0.00 0.00 0.00 52 1011.4
20260505151643 46 342 10.0 19.0 0.00 0.00 0.00 53 1011.3
20260505151505 45 355 7.0 18.0 0.00 0.00 0.00 53 1011.4
20260505151408 45 297 7.0 18.0 0.00 0.00 0.00 53 1011.4
20260505151331 45 5 7.0 18.0 0.00 0.00 0.00 51 1011.4
20260505151207 45 320 7.0 18.0 0.00 0.00 0.00 51 1011.4
20260505151110 45 298 8.0 18.0 0.00 0.00 0.00 51 1011.4
20260505151035 45 5 10.0 18.0 0.00 0.00 0.00 51 1011.4
20260505150921 45 19 12.0 18.0 0.00 0.00 0.00 51 1011.4
20260505150826 45 348 11.0 18.0 0.00 0.00 0.00 50 1011.4
20260505150727 45 346 8.0 18.0 0.00 0.00 0.00 52 1011.4
20260505150611 45 318 8.0 18.0 0.00 0.00 0.00 52 1011.5
20260505150513 45 320 9.0 18.0 0.00 0.00 0.00 52 1011.5
20260505150436 45 337 10.0 18.0 0.00 0.00 0.00 51 1011.5
20260505150337 45 5 10.0 18.0 0.00 0.00 0.00 51 1011.4
20260505150221 45 342 10.0 18.0 0.00 0.00 0.00 52 1011.4
20260505150126 45 360 12.0 18.0 0.00 0.00 0.00 50 1011.3
20260505140622 43 33 6.0 10.0 0.00 0.00 0.00 53 1011.2
20260505140509 43 330 5.0 13.0 0.00 0.00 0.00 53 1011.2
20260505140410 43 11 4.0 13.0 0.00 0.00 0.00 54 1011.1
20260505140312 43 32 5.0 13.0 0.00 0.00 0.00 54 1011.1
20260505140215 43 24 5.0 13.0 0.00 0.00 0.00 54 1011.2
20260505140115 43 355 5.0 13.0 0.00 0.00 0.00 53 1011.1
20260505130312 40 360 10.0 17.0 0.00 0.00 0.00 56 1010.4
20260505130217 40 14 8.0 17.0 0.00 0.00 0.00 57 1010.4
20260505130126 40 355 8.0 17.0 0.00 0.00 0.00 57 1010.3
20260505125041 40 345 8.0 15.0 0.00 0.00 0.00 58 1010.1
20260505124907 40 15 7.0 12.0 0.00 0.00 0.00 58 1010.0
20260505124812 40 360 8.0 13.0 0.00 0.00 0.00 58 1010.1
20260505124717 40 13 7.0 14.0 0.00 0.00 0.00 59 1010.1
20260505124622 39 342 6.0 14.0 0.00 0.00 0.00 59 1010.0
20260505124507 39 5 5.0 14.0 0.00 0.00 0.00 59 1010.0
20260505124411 39 360 6.0 14.0 0.00 0.00 0.00 59 1010.1
20260505124335 39 32 5.0 14.0 0.00 0.00 0.00 59 1010.0
20260505124223 39 5 6.0 14.0 0.00 0.00 0.00 59 1010.0
20260505124106 39 15 8.0 14.0 0.00 0.00 0.00 58 1010.1
20260505124010 39 360 10.0 14.0 0.00 0.00 0.00 58 1010.1
20260505123913 39 23 9.0 14.0 0.00 0.00 0.00 59 1010.0
20260505123838 39 12 7.0 13.0 0.00 0.00 0.00 59 1010.1
20260505123741 39 52 7.0 13.0 0.00 0.00 0.00 59 1010.0
20260505123609 39 36 6.0 13.0 0.00 0.00 0.00 60 1009.9
20260505123513 39 43 6.0 15.0 0.00 0.00 0.00 60 1009.9
20260505123438 39 351 8.0 15.0 0.00 0.00 0.00 60 1009.9
20260505123340 39 15 8.0 15.0 0.00 0.00 0.00 60 1009.9
20260505123223 39 38 8.0 15.0 0.00 0.00 0.00 60 1009.9
20260505123107 39 22 7.0 15.0 0.00 0.00 0.00 61 1009.8
20260505123012 39 360 6.0 15.0 0.00 0.00 0.00 61 1009.9
20260505122937 39 17 6.0 15.0 0.00 0.00 0.00 61 1009.9
20260505122844 39 355 8.0 15.0 0.00 0.00 0.00 61 1009.8
20260505122727 39 5 8.0 15.0 0.00 0.00 0.00 61 1009.8
20260505122630 39 320 8.0 13.0 0.00 0.00 0.00 61 1009.8
20260505122508 39 355 6.0 13.0 0.00 0.00 0.00 62 1009.8
20260505122413 39 345 6.0 11.0 0.00 0.00 0.00 63 1009.8
20260505122333 39 21 6.0 11.0 0.00 0.00 0.00 63 1009.8
20260505122208 38 17 7.0 11.0 0.00 0.00 0.00 63 1009.7
20260505122112 38 28 6.0 11.0 0.00 0.00 0.00 63 1009.8
20260505122033 38 20 6.0 11.0 0.00 0.00 0.00 63 1009.8
20260505121953 38 16 6.0 11.0 0.00 0.00 0.00 63 1009.7
20260505121805 38 9 7.0 11.0 0.00 0.00 0.00 63 1009.8
20260505121710 38 355 7.0 11.0 0.00 0.00 0.00 63 1009.7
20260505121614 38 44 7.0 11.0 0.00 0.00 0.00 63 1009.7
20260505121519 38 46 7.0 11.0 0.00 0.00 0.00 64 1009.7
20260505121407 38 360 8.0 11.0 0.00 0.00 0.00 63 1009.7
20260505121310 38 24 9.0 11.0 0.00 0.00 0.00 63 1009.7
20260505121215 38 355 7.0 10.0 0.00 0.00 0.00 64 1009.7
20260505121115 38 355 7.0 10.0 0.00 0.00 0.00 64 1009.6
20260505121016 38 5 8.0 10.0 0.00 0.00 0.00 64 1009.7
20260505120918 38 360 6.0 10.0 0.00 0.00 0.00 65 1009.6
20260505120822 38 350 5.0 10.0 0.00 0.00 0.00 65 1009.6
20260505120722 38 13 5.0 10.0 0.00 0.00 0.00 65 1009.7
20260505120624 38 334 5.0 10.0 0.00 0.00 0.00 65 1009.6
20260505120525 38 343 6.0 10.0 0.00 0.00 0.00 65 1009.5
20260505120407 38 328 6.0 11.0 0.00 0.00 0.00 65 1009.6
20260505120307 38 355 7.0 11.0 0.00 0.00 0.00 66 1009.5
20260505120213 38 355 6.0 11.0 0.00 0.00 0.00 66 1009.6
20260505120114 38 26 5.0 11.0 0.00 0.00 0.00 66 1009.6
20260505120016 38 355 5.0 11.0 0.00 0.00 0.00 66 1009.5
20260505115937 37 339 6.0 11.0 0.00 0.00 0.00 66 1009.5
20260505115838 37 309 6.0 11.0 0.00 0.00 0.00 66 1009.4
20260505115718 37 12 6.0 11.0 0.00 0.00 0.00 66 1009.5
20260505115620 37 20 6.0 11.0 0.00 0.00 0.00 67 1009.4
20260505115526 37 336 6.0 11.0 0.00 0.00 0.00 67 1009.3
20260505115407 37 349 5.0 10.0 0.00 0.00 0.00 67 1009.4
20260505115309 37 344 6.0 11.0 0.00 0.00 0.00 67 1009.4
20260505115230 37 355 7.0 12.0 0.00 0.00 0.00 67 1009.4
20260505115111 37 360 7.0 12.0 0.00 0.00 0.00 67 1009.4
20260505115011 37 350 6.0 12.0 0.00 0.00 0.00 68 1009.4
20260505114933 37 360 5.0 12.0 0.00 0.00 0.00 68 1009.2
20260505114817 37 30 4.0 12.0 0.00 0.00 0.00 68 1009.3
20260505114719 37 325 5.0 12.0 0.00 0.00 0.00 68 1009.3
20260505114620 37 5 8.0 12.0 0.00 0.00 0.00 68 1009.3
20260505114522 37 5 8.0 12.0 0.00 0.00 0.00 68 1009.3
20260505114424 37 28 8.0 12.0 0.00 0.00 0.00 68 1009.2
20260505114325 37 23 7.0 12.0 0.00 0.00 0.00 68 1009.2
20260505114210 37 348 7.0 10.0 0.00 0.00 0.00 68 1009.3
20260505114111 37 337 7.0 10.0 0.00 0.00 0.00 69 1009.2
20260505114011 37 11 7.0 12.0 0.00 0.00 0.00 69 1009.3
20260505113913 37 5 7.0 12.0 0.00 0.00 0.00 69 1009.2
20260505113815 37 348 7.0 12.0 0.00 0.00 0.00 69 1009.2
20260505113716 36 303 7.0 12.0 0.00 0.00 0.00 69 1009.2
20260505113618 36 355 6.0 12.0 0.00 0.00 0.00 69 1009.2
20260505113523 36 344 5.0 12.0 0.00 0.00 0.00 70 1009.1
20260505113443 36 360 7.0 13.0 0.00 0.00 0.00 70 1009.2
20260505113324 36 355 7.0 13.0 0.00 0.00 0.00 70 1009.1
20260505113224 36 346 6.0 13.0 0.00 0.00 0.00 70 1009.1
20260505113145 36 316 5.0 13.0 0.00 0.00 0.00 70 1009.2
20260505113026 36 5 7.0 13.0 0.00 0.00 0.00 70 1009.1
20260505112927 36 10 8.0 13.0 0.00 0.00 0.00 70 1009.1
20260505112832 36 339 9.0 13.0 0.00 0.00 0.00 71 1009.1
20260505112711 36 360 8.0 13.0 0.00 0.00 0.00 71 1009.1
20260505112633 36 360 7.0 13.0 0.00 0.00 0.00 71 1009.0
20260505112534 36 327 6.0 12.0 0.00 0.00 0.00 71 1009.0
20260505112407 36 346 8.0 12.0 0.00 0.00 0.00 72 1009.0
20260505112329 36 341 9.0 12.0 0.00 0.00 0.00 72 1008.9
20260505112209 36 346 6.0 12.0 0.00 0.00 0.00 72 1008.9
20260505112113 36 341 4.0 9.0 0.00 0.00 0.00 72 1008.9
20260505112019 36 331 6.0 9.0 0.00 0.00 0.00 72 1008.9
20260505111921 36 323 6.0 9.0 0.00 0.00 0.00 72 1008.9
20260505111841 36 346 4.0 9.0 0.00 0.00 0.00 72 1008.9
20260505111721 36 360 4.0 9.0 0.00 0.00 0.00 72 1008.8
20260505111622 36 5 5.0 9.0 0.00 0.00 0.00 72 1008.9
20260505111523 36 5 6.0 9.0 0.00 0.00 0.00 72 1008.8
20260505111423 36 360 6.0 9.0 0.00 0.00 0.00 72 1008.8
20260505111308 36 349 5.0 8.0 0.00 0.00 0.00 72 1008.8
20260505111229 36 360 5.0 8.0 0.00 0.00 0.00 73 1008.8
20260505111106 36 355 5.0 8.0 0.00 0.00 0.00 73 1008.8
20260505111010 36 341 4.0 10.0 0.00 0.00 0.00 73 1008.8
20260505110913 36 348 4.0 10.0 0.00 0.00 0.00 73 1008.8
20260505110817 36 347 4.0 10.0 0.00 0.00 0.00 73 1008.9
20260505110725 36 5 4.0 10.0 0.00 0.00 0.00 73 1008.7
20260505110650 36 330 4.0 10.0 0.00 0.00 0.00 73 1008.9
20260505110505 36 326 4.0 10.0 0.00 0.00 0.00 73 1008.8
20260505110430 36 5 4.0 10.0 0.00 0.00 0.00 73 1008.9
20260505110306 36 340 5.0 10.0 0.00 0.00 0.00 73 1008.9
20260505110231 36 344 5.0 10.0 0.00 0.00 0.00 72 1008.8
20260505110113 36 5 5.0 10.0 0.00 0.00 0.00 72 1008.8
20260505102204 37 5 4.0 9.0 0.00 0.00 0.00 71 1008.7
20260505102107 37 337 4.0 9.0 0.00 0.00 0.00 72 1008.6
20260505102015 37 30 5.0 9.0 0.00 0.00 0.00 71 1008.6
20260505101938 37 349 4.0 9.0 0.00 0.00 0.00 71 1008.5
20260505101823 37 350 4.0 9.0 0.00 0.00 0.00 71 1008.6
20260505101707 37 355 4.0 9.0 0.00 0.00 0.00 71 1008.6
20260505101610 37 360 4.0 9.0 0.00 0.00 0.00 71 1008.6
20260505101515 37 346 5.0 9.0 0.00 0.00 0.00 71 1008.6
20260505101420 37 29 5.0 9.0 0.00 0.00 0.00 71 1008.5
20260505101307 37 314 5.0 9.0 0.00 0.00 0.00 71 1008.5
20260505101212 37 347 5.0 9.0 0.00 0.00 0.00 71 1008.6
20260505101117 37 331 6.0 9.0 0.00 0.00 0.00 71 1008.5
20260505101041 37 331 6.0 9.0 0.00 0.00 0.00 71 1008.6
20260505100925 37 355 4.0 9.0 0.00 0.00 0.00 71 1008.6
20260505100808 37 316 4.0 8.0 0.00 0.00 0.00 71 1008.6
20260505100717 37 348 4.0 8.0 0.00 0.00 0.00 70 1008.6
20260505100621 37 339 4.0 8.0 0.00 0.00 0.00 70 1008.5
20260505100505 37 348 4.0 8.0 0.00 0.00 0.00 70 1008.6
20260505100428 37 5 4.0 8.0 0.00 0.00 0.00 70 1008.6
20260505100311 37 339 5.0 9.0 0.00 0.00 0.00 70 1008.6
20260505100236 37 355 5.0 9.0 0.00 0.00 0.00 70 1008.6
20260505100120 37 336 4.0 9.0 0.00 0.00 0.00 70 1008.6
20260505100027 37 16 4.0 9.0 0.00 0.00 0.00 70 1008.6
20260505095904 37 350 5.0 9.0 0.00 0.00 0.00 70 1008.6
20260505095809 37 343 4.0 9.0 0.00 0.00 0.00 70 1008.7
20260505095714 37 336 4.0 9.0 0.00 0.00 0.00 70 1008.6
20260505095617 37 317 5.0 9.0 0.00 0.00 0.00 70 1008.7
20260505095522 37 341 5.0 9.0 0.00 0.00 0.00 70 1008.6
20260505095430 38 355 4.0 8.0 0.00 0.00 0.00 70 1008.7
20260505095307 38 350 4.0 8.0 0.00 0.00 0.00 70 1008.6
20260505095210 38 360 4.0 9.0 0.00 0.00 0.00 70 1008.6
20260505095114 38 333 4.0 9.0 0.00 0.00 0.00 70 1008.6
20260505095018 38 311 4.0 9.0 0.00 0.00 0.00 70 1008.7
20260505094942 38 339 4.0 9.0 0.00 0.00 0.00 70 1008.6
20260505094810 38 339 3.0 9.0 0.00 0.00 0.00 70 1008.7
20260505094715 38 337 3.0 11.0 0.00 0.00 0.00 70 1008.6
20260505094639 38 309 4.0 11.0 0.00 0.00 0.00 69 1008.7
20260505094522 38 346 5.0 11.0 0.00 0.00 0.00 69 1008.6
20260505094407 38 355 5.0 11.0 0.00 0.00 0.00 70 1008.6
20260505094311 38 351 4.0 11.0 0.00 0.00 0.00 70 1008.6
20260505094214 38 349 4.0 11.0 0.00 0.00 0.00 70 1008.6
20260505094142 38 360 5.0 11.0 0.00 0.00 0.00 69 1008.6
20260505094025 38 342 7.0 11.0 0.00 0.00 0.00 69 1008.6
20260505093949 38 329 6.0 11.0 0.00 0.00 0.00 69 1008.6
20260505093805 38 340 5.0 11.0 0.00 0.00 0.00 69 1008.5
20260505093710 38 335 5.0 11.0 0.00 0.00 0.00 69 1008.5
20260505093634 38 327 5.0 11.0 0.00 0.00 0.00 69 1008.5
20260505093518 38 348 5.0 11.0 0.00 0.00 0.00 69 1008.5
20260505093406 38 339 8.0 11.0 0.00 0.00 0.00 69 1008.4
20260505093311 38 333 7.0 11.0 0.00 0.00 0.00 69 1008.5
20260505093215 38 326 5.0 11.0 0.00 0.00 0.00 69 1008.5
20260505093120 38 333 4.0 11.0 0.00 0.00 0.00 69 1008.4
20260505093005 38 350 4.0 11.0 0.00 0.00 0.00 69 1008.5
20260505092909 38 327 5.0 11.0 0.00 0.00 0.00 68 1008.4
20260505092816 38 350 5.0 11.0 0.00 0.00 0.00 68 1008.4
20260505092740 38 327 6.0 11.0 0.00 0.00 0.00 68 1008.4
20260505092624 38 355 6.0 10.0 0.00 0.00 0.00 68 1008.5
20260505092529 38 336 7.0 10.0 0.00 0.00 0.00 68 1008.4
20260505092413 38 321 5.0 10.0 0.00 0.00 0.00 69 1008.4
20260505092318 38 329 5.0 10.0 0.00 0.00 0.00 69 1008.4
20260505092243 38 346 5.0 10.0 0.00 0.00 0.00 69 1008.4
20260505092130 38 343 5.0 9.0 0.00 0.00 0.00 68 1008.4
20260505092007 38 333 6.0 9.0 0.00 0.00 0.00 68 1008.4
20260505091911 38 310 6.0 11.0 0.00 0.00 0.00 69 1008.4
20260505091815 38 342 5.0 11.0 0.00 0.00 0.00 68 1008.4
20260505091719 38 350 5.0 11.0 0.00 0.00 0.00 68 1008.3
20260505091643 38 348 3.0 13.0 0.00 0.00 0.00 68 1008.4
20260505091511 39 13 4.0 13.0 0.00 0.00 0.00 68 1008.3
20260505091416 39 319 4.0 13.0 0.00 0.00 0.00 68 1008.3
20260505091320 39 291 4.0 13.0 0.00 0.00 0.00 67 1008.3
20260505091224 39 339 6.0 13.0 0.00 0.00 0.00 67 1008.3
20260505091108 39 325 6.0 13.0 0.00 0.00 0.00 67 1008.3
20260505091013 39 342 5.0 13.0 0.00 0.00 0.00 67 1008.3
20260505090922 39 355 7.0 13.0 0.00 0.00 0.00 67 1008.2
20260505090826 39 355 9.0 13.0 0.00 0.00 0.00 67 1008.2
20260505090729 39 355 8.0 13.0 0.00 0.00 0.00 67 1008.1
20260505090605 39 355 8.0 14.0 0.00 0.00 0.00 67 1008.1
20260505090509 39 9 8.0 14.0 0.00 0.00 0.00 67 1008.2
20260505090414 39 350 6.0 14.0 0.00 0.00 0.00 67 1008.1
20260505090319 39 319 7.0 14.0 0.00 0.00 0.00 67 1008.2
20260505090227 39 341 6.0 14.0 0.00 0.00 0.00 67 1008.1
20260505090130 39 334 4.0 14.0 0.00 0.00 0.00 67 1008.2
20260505090007 39 22 5.0 14.0 0.00 0.00 0.00 67 1008.1
20260505085912 39 348 8.0 14.0 0.00 0.00 0.00 66 1008.1
20260505085816 39 355 8.0 14.0 0.00 0.00 0.00 66 1008.1
20260505085720 39 323 7.0 14.0 0.00 0.00 0.00 66 1008.1
20260505085628 39 360 9.0 16.0 0.00 0.00 0.00 66 1008.2
20260505085506 39 19 8.0 16.0 0.00 0.00 0.00 66 1008.2
20260505085430 39 360 8.0 16.0 0.00 0.00 0.00 66 1008.2
20260505085308 39 338 10.0 16.0 0.00 0.00 0.00 66 1008.1
20260505085212 39 345 9.0 16.0 0.00 0.00 0.00 66 1008.2
20260505085137 39 345 6.0 16.0 0.00 0.00 0.00 67 1008.2
20260505085020 39 327 8.0 16.0 0.00 0.00 0.00 67 1008.2
20260505084928 39 345 10.0 16.0 0.00 0.00 0.00 66 1008.2
20260505084830 39 5 10.0 16.0 0.00 0.00 0.00 66 1008.1
20260505084708 39 355 9.0 15.0 0.00 0.00 0.00 66 1008.1
20260505084631 39 334 8.0 15.0 0.00 0.00 0.00 66 1008.1
20260505084514 39 43 6.0 15.0 0.00 0.00 0.00 66 1008.1
20260505084416 39 327 8.0 15.0 0.00 0.00 0.00 66 1008.0
20260505084319 39 21 9.0 15.0 0.00 0.00 0.00 66 1008.1
20260505084206 39 338 10.0 14.0 0.00 0.00 0.00 66 1008.0
20260505084130 39 344 11.0 14.0 0.00 0.00 0.00 66 1008.0
20260505084031 39 342 11.0 14.0 0.00 0.00 0.00 66 1008.0
20260505083913 39 319 10.0 14.0 0.00 0.00 0.00 66 1007.9
20260505083816 39 350 9.0 14.0 0.00 0.00 0.00 66 1007.9
20260505083720 39 313 9.0 14.0 0.00 0.00 0.00 66 1007.9
20260505083606 39 343 8.0 14.0 0.00 0.00 0.00 66 1007.9
20260505083529 39 34 6.0 13.0 0.00 0.00 0.00 66 1007.9
20260505083406 39 341 5.0 14.0 0.00 0.00 0.00 66 1007.8
20260505083309 39 355 5.0 14.0 0.00 0.00 0.00 66 1007.7
20260505083211 39 355 5.0 14.0 0.00 0.00 0.00 66 1007.8
20260505083114 39 297 7.0 14.0 0.00 0.00 0.00 66 1007.8
20260505083017 40 335 8.0 14.0 0.00 0.00 0.00 66 1007.7
20260505082904 39 11 7.0 14.0 0.00 0.00 0.00 66 1007.7
20260505082807 39 311 8.0 14.0 0.00 0.00 0.00 66 1007.7
20260505082710 40 332 8.0 14.0 0.00 0.00 0.00 66 1007.6
20260505082615 40 35 7.0 16.0 0.00 0.00 0.00 66 1007.6
20260505082517 40 349 6.0 16.0 0.00 0.00 0.00 66 1007.6
20260505082420 40 350 8.0 16.0 0.00 0.00 0.00 66 1007.6
20260505082327 40 325 10.0 16.0 0.00 0.00 0.00 66 1007.6
20260505082229 40 340 10.0 16.0 0.00 0.00 0.00 65 1007.5
20260505082106 40 11 9.0 16.0 0.00 0.00 0.00 65 1007.5
20260505082008 40 355 9.0 16.0 0.00 0.00 0.00 65 1007.5
20260505081911 40 12 9.0 16.0 0.00 0.00 0.00 65 1007.5
20260505081814 40 355 10.0 16.0 0.00 0.00 0.00 65 1007.5
20260505081721 40 339 9.0 16.0 0.00 0.00 0.00 65 1007.5
20260505081625 40 350 6.0 11.0 0.00 0.00 0.00 65 1007.5
20260505081529 40 323 5.0 13.0 0.00 0.00 0.00 65 1007.5
20260505081430 40 360 7.0 13.0 0.00 0.00 0.00 65 1007.5
20260505081306 40 338 7.0 13.0 0.00 0.00 0.00 65 1007.5
20260505081229 40 355 6.0 13.0 0.00 0.00 0.00 65 1007.5
20260505081105 40 317 6.0 13.0 0.00 0.00 0.00 65 1007.6
20260505081012 40 328 7.0 13.0 0.00 0.00 0.00 64 1007.5
20260505080916 40 323 7.0 13.0 0.00 0.00 0.00 65 1007.5
20260505080820 40 333 6.0 13.0 0.00 0.00 0.00 64 1007.5
20260505080705 40 345 6.0 13.0 0.00 0.00 0.00 64 1007.5
20260505080629 40 5 6.0 13.0 0.00 0.00 0.00 64 1007.5
20260505080505 40 329 7.0 14.0 0.00 0.00 0.00 64 1007.5
20260505080413 40 319 6.0 14.0 0.00 0.00 0.00 64 1007.4
20260505080317 40 26 4.0 14.0 0.00 0.00 0.00 64 1007.4
20260505080241 40 5 5.0 14.0 0.00 0.00 0.00 64 1007.4
20260505080105 40 355 6.0 14.0 0.00 0.00 0.00 64 1007.5
20260505080009 40 355 7.0 14.0 0.00 0.00 0.00 64 1007.5
20260505075914 40 331 8.0 14.0 0.00 0.00 0.00 64 1007.4
20260505075819 40 355 7.0 14.0 0.00 0.00 0.00 63 1007.4
20260505075727 40 315 5.0 14.0 0.00 0.00 0.00 64 1007.5
20260505075604 40 306 7.0 11.0 0.00 0.00 0.00 63 1007.5
20260505075530 40 340 8.0 11.0 0.00 0.00 0.00 63 1007.5
20260505075405 40 346 7.0 11.0 0.00 0.00 0.00 63 1007.4
20260505075308 40 333 7.0 11.0 0.00 0.00 0.00 63 1007.4
20260505075212 40 322 8.0 11.0 0.00 0.00 0.00 63 1007.4
20260505075141 40 355 8.0 11.0 0.00 0.00 0.00 63 1007.5
20260505075004 40 321 6.0 10.0 0.00 0.00 0.00 63 1007.5
20260505074908 40 313 6.0 10.0 0.00 0.00 0.00 63 1007.5
20260505074812 40 355 5.0 10.0 0.00 0.00 0.00 63 1007.5
20260505074714 40 331 5.0 10.0 0.00 0.00 0.00 63 1007.5
20260505074637 40 313 5.0 10.0 0.00 0.00 0.00 63 1007.5
20260505074504 40 323 6.0 10.0 0.00 0.00 0.00 63 1007.5
20260505074428 40 335 6.0 10.0 0.00 0.00 0.00 63 1007.5
20260505074305 40 335 5.0 9.0 0.00 0.00 0.00 63 1007.4
20260505074208 40 347 4.0 9.0 0.00 0.00 0.00 63 1007.4
20260505074111 40 324 5.0 9.0 0.00 0.00 0.00 63 1007.4
20260505074015 40 350 5.0 9.0 0.00 0.00 0.00 63 1007.4
20260505073919 41 336 5.0 9.0 0.00 0.00 0.00 63 1007.4
20260505073807 41 324 4.0 9.0 0.00 0.00 0.00 62 1007.3
20260505073711 41 309 4.0 9.0 0.00 0.00 0.00 62 1007.3
20260505073615 41 331 4.0 10.0 0.00 0.00 0.00 62 1007.3
20260505073520 41 346 5.0 10.0 0.00 0.00 0.00 62 1007.3
20260505073424 41 335 5.0 10.0 0.00 0.00 0.00 62 1007.3
20260505073313 41 333 4.0 10.0 0.00 0.00 0.00 63 1007.3
20260505073217 41 5 4.0 10.0 0.00 0.00 0.00 62 1007.4
20260505073121 41 331 5.0 10.0 0.00 0.00 0.00 61 1007.3
20260505073026 41 355 5.0 10.0 0.00 0.00 0.00 61 1007.3
20260505072929 41 314 5.0 10.0 0.00 0.00 0.00 62 1007.3
20260505072805 41 315 6.0 10.0 0.00 0.00 0.00 62 1007.4
20260505072710 41 315 6.0 10.0 0.00 0.00 0.00 61 1007.3
20260505072619 41 360 5.0 10.0 0.00 0.00 0.00 61 1007.4
20260505072543 41 350 4.0 10.0 0.00 0.00 0.00 62 1007.3
20260505072406 41 311 5.0 10.0 0.00 0.00 0.00 61 1007.3
20260505072310 41 348 5.0 10.0 0.00 0.00 0.00 62 1007.3
20260505072213 41 328 5.0 10.0 0.00 0.00 0.00 61 1007.3
20260505072116 41 5 5.0 11.0 0.00 0.00 0.00 61 1007.3
20260505072041 41 329 4.0 11.0 0.00 0.00 0.00 61 1007.3
20260505071907 41 346 4.0 11.0 0.00 0.00 0.00 61 1007.4
20260505071810 41 336 5.0 12.0 0.00 0.00 0.00 61 1007.2
20260505071715 41 345 5.0 12.0 0.00 0.00 0.00 60 1007.2
20260505071619 41 16 5.0 12.0 0.00 0.00 0.00 61 1007.3
20260505071543 41 24 6.0 13.0 0.00 0.00 0.00 61 1007.3
20260505071407 41 321 7.0 13.0 0.00 0.00 0.00 60 1007.3
20260505071315 41 346 7.0 13.0 0.00 0.00 0.00 60 1007.3
20260505071219 41 38 6.0 13.0 0.00 0.00 0.00 60 1007.3
20260505071124 41 337 7.0 13.0 0.00 0.00 0.00 61 1007.3
20260505071009 41 329 6.0 13.0 0.00 0.00 0.00 60 1007.3
20260505070913 41 332 7.0 13.0 0.00 0.00 0.00 60 1007.3
20260505070817 41 330 8.0 13.0 0.00 0.00 0.00 60 1007.3
20260505070706 41 348 7.0 13.0 0.00 0.00 0.00 60 1007.3
20260505070610 41 338 6.0 13.0 0.00 0.00 0.00 60 1007.4
20260505070514 41 355 7.0 13.0 0.00 0.00 0.00 61 1007.5
20260505070418 41 347 7.0 13.0 0.00 0.00 0.00 60 1007.4
20260505070322 41 306 6.0 14.0 0.00 0.00 0.00 60 1007.4
20260505070209 41 288 5.0 14.0 0.00 0.00 0.00 60 1007.4
20260505070113 41 5 5.0 14.0 0.00 0.00 0.00 60 1007.4
20260505070017 41 323 6.0 14.0 0.00 0.00 0.00 60 1007.4
20260505065940 41 340 8.0 14.0 0.00 0.00 0.00 60 1007.4
20260505065824 41 324 9.0 14.0 0.00 0.00 0.00 60 1007.4
20260505065708 42 345 6.0 14.0 0.00 0.00 0.00 60 1007.4
20260505065612 42 316 7.0 14.0 0.00 0.00 0.00 60 1007.3
20260505065521 42 340 6.0 14.0 0.00 0.00 0.00 60 1007.4
20260505065426 42 340 5.0 13.0 0.00 0.00 0.00 60 1007.3
20260505065329 42 328 5.0 13.0 0.00 0.00 0.00 60 1007.3
20260505065205 42 333 6.0 13.0 0.00 0.00 0.00 60 1007.3
20260505065109 42 315 8.0 16.0 0.00 0.00 0.00 60 1007.2
20260505065013 42 334 8.0 16.0 0.00 0.00 0.00 59 1007.3
20260505064922 42 325 7.0 16.0 0.00 0.00 0.00 60 1007.2
20260505064826 42 17 8.0 16.0 0.00 0.00 0.00 60 1007.1
20260505064749 42 314 7.0 16.0 0.00 0.00 0.00 60 1007.3
20260505064606 42 337 6.0 16.0 0.00 0.00 0.00 60 1007.3
20260505064531 42 340 7.0 16.0 0.00 0.00 0.00 60 1007.3
20260505064414 42 360 8.0 16.0 0.00 0.00 0.00 59 1007.3
20260505064317 42 329 7.0 16.0 0.00 0.00 0.00 60 1007.2
20260505064205 42 307 5.0 13.0 0.00 0.00 0.00 60 1007.3
20260505064109 42 336 7.0 13.0 0.00 0.00 0.00 60 1007.3
20260505064013 42 344 7.0 13.0 0.00 0.00 0.00 59 1007.4
20260505063937 42 338 7.0 13.0 0.00 0.00 0.00 60 1007.4
20260505063821 42 360 5.0 13.0 0.00 0.00 0.00 60 1007.3
20260505063724 42 340 6.0 13.0 0.00 0.00 0.00 60 1007.3
20260505063613 42 337 6.0 13.0 0.00 0.00 0.00 60 1007.3
20260505063537 42 355 4.0 11.0 0.00 0.00 0.00 60 1007.3
20260505063439 42 14 5.0 11.0 0.00 0.00 0.00 60 1007.3
20260505063322 42 348 6.0 11.0 0.00 0.00 0.00 59 1007.3
20260505063207 42 337 6.0 11.0 0.00 0.00 0.00 59 1007.3
20260505063111 42 339 5.0 11.0 0.00 0.00 0.00 60 1007.3
20260505063015 42 337 6.0 11.0 0.00 0.00 0.00 59 1007.3
20260505062923 42 324 7.0 11.0 0.00 0.00 0.00 59 1007.4
20260505062827 42 306 5.0 12.0 0.00 0.00 0.00 59 1007.3
20260505062710 42 293 5.0 12.0 0.00 0.00 0.00 58 1007.4
20260505062614 42 333 6.0 12.0 0.00 0.00 0.00 58 1007.3
20260505062518 42 313 6.0 12.0 0.00 0.00 0.00 58 1007.3
20260505062442 42 348 6.0 12.0 0.00 0.00 0.00 58 1007.2
20260505062306 42 334 6.0 12.0 0.00 0.00 0.00 58 1007.3
20260505062214 42 319 6.0 12.0 0.00 0.00 0.00 59 1007.3
20260505062138 42 346 6.0 12.0 0.00 0.00 0.00 59 1007.3
20260505062020 42 318 6.0 12.0 0.00 0.00 0.00 58 1007.2
20260505061924 42 321 7.0 12.0 0.00 0.00 0.00 58 1007.3
20260505061809 42 347 7.0 11.0 0.00 0.00 0.00 58 1007.2
20260505061715 42 337 6.0 14.0 0.00 0.00 0.00 59 1007.3
20260505061605 42 340 5.0 14.0 0.00 0.00 0.00 59 1007.2
20260505061530 42 355 5.0 14.0 0.00 0.00 0.00 59 1007.3
20260505061413 43 322 5.0 14.0 0.00 0.00 0.00 59 1007.3
20260505061318 43 313 6.0 14.0 0.00 0.00 0.00 58 1007.3
20260505061223 43 313 5.0 14.0 0.00 0.00 0.00 59 1007.3
20260505061129 43 325 6.0 14.0 0.00 0.00 0.00 58 1007.4
20260505061014 43 298 6.0 14.0 0.00 0.00 0.00 58 1007.4
20260505060943 43 321 8.0 14.0 0.00 0.00 0.00 58 1007.3
20260505060808 43 304 8.0 14.0 0.00 0.00 0.00 58 1007.4
20260505060733 43 313 5.0 12.0 0.00 0.00 0.00 58 1007.3
20260505060637 43 321 6.0 12.0 0.00 0.00 0.00 57 1007.3
20260505060521 43 315 7.0 14.0 0.00 0.00 0.00 57 1007.3
20260505060406 43 349 6.0 14.0 0.00 0.00 0.00 58 1007.3
20260505060311 43 335 6.0 14.0 0.00 0.00 0.00 58 1007.3
20260505060219 43 360 5.0 14.0 0.00 0.00 0.00 58 1007.3
20260505060105 43 326 6.0 14.0 0.00 0.00 0.00 58 1007.3
20260505060011 43 355 7.0 14.0 0.00 0.00 0.00 57 1007.3
20260505055917 43 317 7.0 16.0 0.00 0.00 0.00 58 1007.2
20260505055822 43 337 8.0 16.0 0.00 0.00 0.00 58 1007.3
20260505055712 43 347 9.0 16.0 0.00 0.00 0.00 58 1007.2
20260505055637 43 332 8.0 16.0 0.00 0.00 0.00 58 1007.1
20260505055521 43 331 6.0 16.0 0.00 0.00 0.00 58 1007.1
20260505055445 43 317 6.0 16.0 0.00 0.00 0.00 58 1007.1
20260505055309 43 336 7.0 16.0 0.00 0.00 0.00 58 1007.1
20260505055213 43 323 8.0 16.0 0.00 0.00 0.00 57 1007.1
20260505055117 43 337 9.0 16.0 0.00 0.00 0.00 58 1007.1
20260505055005 43 344 6.0 14.0 0.00 0.00 0.00 58 1007.1
20260505054910 43 347 6.0 14.0 0.00 0.00 0.00 57 1007.2
20260505054813 43 355 8.0 14.0 0.00 0.00 0.00 58 1007.1
20260505054717 43 17 7.0 14.0 0.00 0.00 0.00 58 1007.2
20260505054621 43 333 6.0 14.0 0.00 0.00 0.00 59 1007.2
20260505054506 43 336 8.0 13.0 0.00 0.00 0.00 58 1007.1
20260505054413 43 9 8.0 13.0 0.00 0.00 0.00 58 1007.0
20260505054318 43 360 9.0 13.0 0.00 0.00 0.00 58 1007.1
20260505054241 43 295 8.0 13.0 0.00 0.00 0.00 58 1007.1
20260505054124 43 325 7.0 13.0 0.00 0.00 0.00 58 1007.1
20260505054008 43 329 7.0 13.0 0.00 0.00 0.00 58 1007.1
20260505053912 43 351 8.0 13.0 0.00 0.00 0.00 58 1007.1
20260505053821 43 301 7.0 13.0 0.00 0.00 0.00 58 1007.1
20260505053706 43 309 7.0 13.0 0.00 0.00 0.00 58 1007.0
20260505053610 43 347 9.0 13.0 0.00 0.00 0.00 58 1007.1
20260505053513 43 355 8.0 13.0 0.00 0.00 0.00 59 1007.1
20260505053418 43 331 8.0 13.0 0.00 0.00 0.00 58 1007.1
20260505053323 43 13 8.0 13.0 0.00 0.00 0.00 58 1007.1
20260505053211 43 320 7.0 13.0 0.00 0.00 0.00 58 1007.0
20260505053115 43 334 7.0 12.0 0.00 0.00 0.00 58 1007.0
20260505053020 43 355 6.0 13.0 0.00 0.00 0.00 59 1007.0
20260505052923 43 302 6.0 13.0 0.00 0.00 0.00 59 1007.0
20260505052807 43 323 6.0 13.0 0.00 0.00 0.00 59 1007.0
20260505052711 43 326 5.0 13.0 0.00 0.00 0.00 58 1007.0
20260505052620 43 340 5.0 13.0 0.00 0.00 0.00 58 1007.0
20260505052504 43 300 7.0 13.0 0.00 0.00 0.00 58 1007.0
20260505052429 43 341 9.0 13.0 0.00 0.00 0.00 58 1007.0
20260505052305 43 347 9.0 13.0 0.00 0.00 0.00 58 1007.0
20260505052211 43 307 7.0 13.0 0.00 0.00 0.00 58 1007.0
20260505052115 43 333 8.0 13.0 0.00 0.00 0.00 58 1007.0
20260505052024 43 291 9.0 13.0 0.00 0.00 0.00 58 1006.9
20260505051909 43 331 9.0 13.0 0.00 0.00 0.00 58 1007.0
20260505051812 43 349 9.0 13.0 0.00 0.00 0.00 58 1007.0
20260505051715 43 336 8.0 12.0 0.00 0.00 0.00 58 1007.0
20260505051618 43 310 6.0 12.0 0.00 0.00 0.00 58 1007.0
20260505051522 43 313 5.0 12.0 0.00 0.00 0.00 59 1006.9
20260505051429 43 322 5.0 12.0 0.00 0.00 0.00 58 1006.9
20260505051305 43 311 7.0 12.0 0.00 0.00 0.00 57 1006.8
20260505051228 43 307 7.0 12.0 0.00 0.00 0.00 58 1006.9
20260505051105 43 355 7.0 12.0 0.00 0.00 0.00 58 1006.8
20260505051008 43 338 8.0 12.0 0.00 0.00 0.00 58 1006.9
20260505050911 43 317 6.0 12.0 0.00 0.00 0.00 59 1006.9
20260505050817 43 335 6.0 11.0 0.00 0.00 0.00 59 1006.9
20260505050721 43 306 7.0 11.0 0.00 0.00 0.00 59 1007.0
20260505050624 43 348 7.0 11.0 0.00 0.00 0.00 59 1007.0
20260505050527 43 333 5.0 11.0 0.00 0.00 0.00 59 1007.0
20260505050430 43 336 5.0 11.0 0.00 0.00 0.00 59 1007.0
20260505050305 43 346 5.0 11.0 0.00 0.00 0.00 59 1006.9
20260505050208 43 338 6.0 11.0 0.00 0.00 0.00 59 1006.9
20260505050115 43 338 6.0 11.0 0.00 0.00 0.00 59 1006.9
20260505041709 44 336 6.0 10.0 0.00 0.00 0.00 57 1006.7
20260505041613 44 321 6.0 10.0 0.00 0.00 0.00 57 1006.8
20260505041517 44 315 6.0 10.0 0.00 0.00 0.00 57 1006.7
20260505041406 44 355 5.0 10.0 0.00 0.00 0.00 57 1006.7
20260505041331 44 320 5.0 10.0 0.00 0.00 0.00 57 1006.7
20260505041214 44 304 5.0 10.0 0.00 0.00 0.00 57 1006.7
20260505041118 45 305 5.0 10.0 0.00 0.00 0.00 58 1006.7
20260505041024 44 313 4.0 10.0 0.00 0.00 0.00 57 1006.7
20260505040929 44 337 5.0 12.0 0.00 0.00 0.00 56 1006.8
20260505040815 45 296 6.0 12.0 0.00 0.00 0.00 56 1006.7
20260505040719 45 350 6.0 12.0 0.00 0.00 0.00 55 1006.8
20260505040623 45 307 6.0 12.0 0.00 0.00 0.00 56 1006.7
20260505040509 44 323 5.0 12.0 0.00 0.00 0.00 56 1006.7
20260505040432 44 331 6.0 12.0 0.00 0.00 0.00 56 1006.7
20260505040315 44 344 7.0 12.0 0.00 0.00 0.00 56 1006.7
20260505040219 44 348 7.0 12.0 0.00 0.00 0.00 56 1006.7
20260505040128 44 326 8.0 12.0 0.00 0.00 0.00 57 1006.7
20260505040005 44 300 7.0 11.0 0.00 0.00 0.00 56 1006.8
20260505035929 44 337 6.0 11.0 0.00 0.00 0.00 57 1006.7
20260505035812 44 288 7.0 11.0 0.00 0.00 0.00 56 1006.8
20260505035717 44 317 7.0 11.0 0.00 0.00 0.00 57 1006.8
20260505035622 44 321 5.0 10.0 0.00 0.00 0.00 58 1006.7
20260505035510 44 317 4.0 11.0 0.00 0.00 0.00 58 1006.7
20260505035413 44 346 4.0 11.0 0.00 0.00 0.00 59 1006.7
20260505035317 44 298 5.0 11.0 0.00 0.00 0.00 58 1006.6
20260505035222 44 307 5.0 11.0 0.00 0.00 0.00 57 1006.7
20260505035126 44 306 4.0 11.0 0.00 0.00 0.00 58 1006.7
20260505035011 44 327 5.0 11.0 0.00 0.00 0.00 57 1006.7
20260505034918 44 355 6.0 11.0 0.00 0.00 0.00 58 1006.6
20260505034843 44 304 6.0 11.0 0.00 0.00 0.00 58 1006.6
20260505034727 44 331 5.0 9.0 0.00 0.00 0.00 58 1006.7
20260505034631 44 307 5.0 9.0 0.00 0.00 0.00 58 1006.6
20260505034507 44 309 5.0 9.0 0.00 0.00 0.00 58 1006.7
20260505034410 44 338 4.0 9.0 0.00 0.00 0.00 58 1006.6
20260505034315 44 304 5.0 9.0 0.00 0.00 0.00 58 1006.7
20260505034238 44 294 5.0 9.0 0.00 0.00 0.00 58 1006.7
20260505034106 44 325 5.0 8.0 0.00 0.00 0.00 58 1006.6
20260505034010 44 309 5.0 8.0 0.00 0.00 0.00 58 1006.7
20260505033915 44 309 4.0 6.0 0.00 0.00 0.00 58 1006.7
20260505033819 44 299 3.0 6.0 0.00 0.00 0.00 58 1006.6
20260505033723 44 312 3.0 6.0 0.00 0.00 0.00 59 1006.6
20260505033612 44 303 4.0 6.0 0.00 0.00 0.00 59 1006.6
20260505033514 44 311 4.0 6.0 0.00 0.00 0.00 58 1006.6
20260505033419 44 315 3.0 8.0 0.00 0.00 0.00 58 1006.6
20260505033323 44 306 3.0 8.0 0.00 0.00 0.00 58 1006.6
20260505033226 44 298 4.0 8.0 0.00 0.00 0.00 58 1006.7
20260505033111 44 315 4.0 8.0 0.00 0.00 0.00 58 1006.7
20260505033014 44 344 4.0 8.0 0.00 0.00 0.00 59 1006.7
20260505032920 44 331 4.0 8.0 0.00 0.00 0.00 58 1006.6
20260505032806 44 302 4.0 8.0 0.00 0.00 0.00 58 1006.6
20260505032709 44 307 4.0 8.0 0.00 0.00 0.00 59 1006.6
20260505032634 44 312 4.0 8.0 0.00 0.00 0.00 59 1006.6
20260505032518 44 297 4.0 8.0 0.00 0.00 0.00 59 1006.6
20260505032422 44 300 3.0 8.0 0.00 0.00 0.00 59 1006.6
20260505032312 44 327 3.0 8.0 0.00 0.00 0.00 59 1006.6
20260505032216 44 306 3.0 8.0 0.00 0.00 0.00 57 1006.5
20260505032120 45 304 3.0 8.0 0.00 0.00 0.00 58 1006.6
20260505032006 45 309 4.0 8.0 0.00 0.00 0.00 58 1006.6
20260505031930 45 309 4.0 8.0 0.00 0.00 0.00 58 1006.5
20260505031805 45 313 3.0 8.0 0.00 0.00 0.00 56 1006.6
20260505031713 45 313 3.0 6.0 0.00 0.00 0.00 56 1006.6
20260505031619 45 315 4.0 6.0 0.00 0.00 0.00 55 1006.6
20260505031522 45 311 4.0 6.0 0.00 0.00 0.00 56 1006.5
20260505031426 45 302 3.0 6.0 0.00 0.00 0.00 54 1006.6
20260505031331 45 288 3.0 6.0 0.00 0.00 0.00 56 1006.6
20260505031213 45 291 3.0 6.0 0.00 0.00 0.00 54 1006.6
20260505031117 45 311 3.0 6.0 0.00 0.00 0.00 55 1006.6
20260505031005 45 319 4.0 6.0 0.00 0.00 0.00 54 1006.6
20260505030907 45 319 4.0 6.0 0.00 0.00 0.00 54 1006.6
20260505030812 45 320 4.0 6.0 0.00 0.00 0.00 55 1006.7
20260505030715 45 293 4.0 6.0 0.00 0.00 0.00 55 1006.7
20260505030618 45 305 4.0 9.0 0.00 0.00 0.00 55 1006.6
20260505030523 45 355 4.0 10.0 0.00 0.00 0.00 54 1006.6
20260505030412 45 315 4.0 11.0 0.00 0.00 0.00 54 1006.6
20260505030316 45 305 4.0 11.0 0.00 0.00 0.00 54 1006.6
20260505030239 46 313 3.0 11.0 0.00 0.00 0.00 54 1006.6
20260505030123 46 324 3.0 11.0 0.00 0.00 0.00 53 1006.6
20260505030027 46 340 3.0 11.0 0.00 0.00 0.00 53 1006.5
20260505025904 46 318 4.0 11.0 0.00 0.00 0.00 52 1006.5
20260505025829 46 307 5.0 11.0 0.00 0.00 0.00 52 1006.5
20260505025716 45 335 7.0 11.0 0.00 0.00 0.00 52 1006.4
20260505025621 45 319 6.0 11.0 0.00 0.00 0.00 53 1006.4
20260505025523 45 306 4.0 10.0 0.00 0.00 0.00 53 1006.4
20260505025428 46 323 4.0 6.0 0.00 0.00 0.00 53 1006.5
20260505025305 46 333 4.0 9.0 0.00 0.00 0.00 54 1006.4
20260505025209 46 329 3.0 9.0 0.00 0.00 0.00 53 1006.4
20260505025118 46 328 3.0 9.0 0.00 0.00 0.00 53 1006.4
20260505025042 46 328 3.0 10.0 0.00 0.00 0.00 54 1006.4
20260505024925 46 336 3.0 10.0 0.00 0.00 0.00 53 1006.3
20260505024850 46 317 4.0 10.0 0.00 0.00 0.00 53 1006.3
20260505024706 46 316 4.0 10.0 0.00 0.00 0.00 52 1006.3
20260505024611 46 319 5.0 10.0 0.00 0.00 0.00 52 1006.3
20260505024516 46 328 4.0 10.0 0.00 0.00 0.00 51 1006.2
20260505024444 46 342 3.0 10.0 0.00 0.00 0.00 52 1006.2
20260505024327 46 328 5.0 10.0 0.00 0.00 0.00 52 1006.2
20260505024231 46 350 6.0 10.0 0.00 0.00 0.00 51 1006.2
20260505024107 46 331 5.0 10.0 0.00 0.00 0.00 52 1006.2
20260505024032 46 342 4.0 10.0 0.00 0.00 0.00 52 1006.2
20260505023935 46 350 5.0 10.0 0.00 0.00 0.00 52 1006.2
20260505023818 46 329 6.0 10.0 0.00 0.00 0.00 52 1006.1
20260505023707 46 329 4.0 10.0 0.00 0.00 0.00 52 1006.1
20260505023611 46 351 4.0 10.0 0.00 0.00 0.00 52 1006.1
20260505023517 46 303 5.0 10.0 0.00 0.00 0.00 52 1006.2
20260505023422 46 341 5.0 10.0 0.00 0.00 0.00 52 1006.1
20260505023326 46 336 6.0 10.0 0.00 0.00 0.00 52 1006.1
20260505023210 46 337 6.0 10.0 0.00 0.00 0.00 52 1006.2
20260505023114 46 360 4.0 10.0 0.00 0.00 0.00 52 1006.2
20260505023022 46 349 4.0 10.0 0.00 0.00 0.00 52 1006.1
20260505022926 46 312 4.0 10.0 0.00 0.00 0.00 52 1006.1
20260505022804 46 315 5.0 10.0 0.00 0.00 0.00 53 1006.1
20260505022707 46 300 5.0 10.0 0.00 0.00 0.00 52 1006.2
20260505022632 46 355 4.0 10.0 0.00 0.00 0.00 53 1006.2
20260505022514 46 346 5.0 10.0 0.00 0.00 0.00 53 1006.2
20260505022421 46 312 6.0 10.0 0.00 0.00 0.00 52 1006.1
20260505022326 46 329 5.0 9.0 0.00 0.00 0.00 52 1006.1
20260505022207 46 27 4.0 9.0 0.00 0.00 0.00 52 1006.1
20260505022111 46 315 4.0 8.0 0.00 0.00 0.00 52 1006.0
20260505022033 46 346 4.0 8.0 0.00 0.00 0.00 51 1006.0
20260505021915 46 339 4.0 8.0 0.00 0.00 0.00 52 1006.0
20260505021820 46 302 4.0 8.0 0.00 0.00 0.00 51 1006.0
20260505021707 46 331 4.0 8.0 0.00 0.00 0.00 51 1006.0
20260505021631 46 325 4.0 8.0 0.00 0.00 0.00 51 1005.9
20260505021507 46 11 5.0 8.0 0.00 0.00 0.00 51 1005.9
20260505021409 46 36 4.0 6.0 0.00 0.00 0.00 51 1005.9
20260505021314 46 355 3.0 6.0 0.00 0.00 0.00 51 1005.9
20260505021217 46 323 4.0 6.0 0.00 0.00 0.00 50 1005.9
20260505021104 46 344 3.0 6.0 0.00 0.00 0.00 53 1005.9
20260505021029 46 350 3.0 6.0 0.00 0.00 0.00 51 1005.9
20260505020905 46 355 4.0 6.0 0.00 0.00 0.00 52 1005.9
20260505020809 46 340 4.0 7.0 0.00 0.00 0.00 52 1005.9
20260505020734 46 350 3.0 6.0 0.00 0.00 0.00 52 1005.9
20260505020617 46 325 3.0 6.0 0.00 0.00 0.00 51 1005.9
20260505020521 47 325 2.0 6.0 0.00 0.00 0.00 51 1005.8
20260505020427 47 342 3.0 6.0 0.00 0.00 0.00 51 1005.8
20260505020351 47 319 4.0 8.0 0.00 0.00 0.00 51 1005.8
20260505020207 47 355 4.0 11.0 0.00 0.00 0.00 49 1005.8
20260505020110 47 345 3.0 11.0 0.00 0.00 0.00 50 1005.8
20260505020013 47 347 3.0 11.0 0.00 0.00 0.00 49 1005.9
20260505015937 47 330 4.0 12.0 0.00 0.00 0.00 49 1005.8
20260505015818 47 303 4.0 12.0 0.00 0.00 0.00 50 1005.8
20260505015725 47 12 4.0 12.0 0.00 0.00 0.00 49 1005.8
20260505015648 47 351 4.0 12.0 0.00 0.00 0.00 50 1005.8
20260505015551 47 331 6.0 12.0 0.00 0.00 0.00 50 1005.8
20260505015407 47 321 7.0 13.0 0.00 0.00 0.00 50 1005.8
20260505015310 47 341 6.0 13.0 0.00 0.00 0.00 48 1005.8
20260505015214 47 346 7.0 13.0 0.00 0.00 0.00 47 1005.8
20260505015118 47 355 8.0 13.0 0.00 0.00 0.00 47 1005.8
20260505015006 47 355 8.0 13.0 0.00 0.00 0.00 47 1005.7
20260505014930 47 341 7.0 13.0 0.00 0.00 0.00 48 1005.7
20260505014807 47 5 6.0 13.0 0.00 0.00 0.00 48 1005.7
20260505014711 47 355 7.0 13.0 0.00 0.00 0.00 47 1005.7
20260505014615 47 360 8.0 13.0 0.00 0.00 0.00 47 1005.7
20260505014519 47 5 8.0 13.0 0.00 0.00 0.00 47 1005.6
20260505014405 47 26 8.0 12.0 0.00 0.00 0.00 47 1005.7
20260505014329 47 324 7.0 12.0 0.00 0.00 0.00 47 1005.7
20260505014206 48 355 6.0 12.0 0.00 0.00 0.00 48 1005.7
20260505014110 48 329 5.0 12.0 0.00 0.00 0.00 48 1005.7
20260505014014 48 33 6.0 16.0 0.00 0.00 0.00 48 1005.6
20260505013917 48 330 8.0 16.0 0.00 0.00 0.00 47 1005.7
20260505013825 48 348 9.0 16.0 0.00 0.00 0.00 47 1005.6
20260505013750 48 355 9.0 16.0 0.00 0.00 0.00 47 1005.6
20260505013604 48 342 6.0 16.0 0.00 0.00 0.00 47 1005.6
20260505013507 48 19 7.0 16.0 0.00 0.00 0.00 47 1005.6
20260505013411 48 355 9.0 16.0 0.00 0.00 0.00 47 1005.6
20260505013334 48 336 10.0 16.0 0.00 0.00 0.00 47 1005.5
20260505013236 48 329 10.0 16.0 0.00 0.00 0.00 47 1005.6
20260505013118 48 348 9.0 15.0 0.00 0.00 0.00 48 1005.5
20260505013005 48 338 8.0 15.0 0.00 0.00 0.00 48 1005.5
20260505012909 48 331 6.0 15.0 0.00 0.00 0.00 48 1005.6
20260505012811 48 5 7.0 17.0 0.00 0.00 0.00 48 1005.5
20260505012713 48 316 10.0 17.0 0.00 0.00 0.00 48 1005.5
20260505012616 48 346 10.0 17.0 0.00 0.00 0.00 47 1005.5
20260505012540 48 349 9.0 17.0 0.00 0.00 0.00 47 1005.5
20260505012405 48 312 9.0 18.0 0.00 0.00 0.00 48 1005.5
20260505012309 48 5 8.0 18.0 0.00 0.00 0.00 47 1005.4
20260505012213 48 347 9.0 18.0 0.00 0.00 0.00 47 1005.4
20260505012116 48 355 11.0 18.0 0.00 0.00 0.00 46 1005.4
20260505012039 48 355 10.0 18.0 0.00 0.00 0.00 47 1005.3
20260505011921 48 339 9.0 19.0 0.00 0.00 0.00 47 1005.4
20260505011808 48 316 10.0 19.0 0.00 0.00 0.00 47 1005.4
20260505011708 48 355 13.0 19.0 0.00 0.00 0.00 46 1005.3
20260505011613 48 360 13.0 19.0 0.00 0.00 0.00 46 1005.3
20260505011515 48 360 11.0 19.0 0.00 0.00 0.00 46 1005.4
20260505011438 48 355 9.0 19.0 0.00 0.00 0.00 47 1005.4
20260505011320 49 355 9.0 19.0 0.00 0.00 0.00 48 1005.3
20260505011205 49 326 10.0 20.0 0.00 0.00 0.00 47 1005.3
20260505011111 49 5 9.0 20.0 0.00 0.00 0.00 47 1005.3
20260505011014 49 360 7.0 20.0 0.00 0.00 0.00 49 1005.3
20260505010914 49 24 7.0 20.0 0.00 0.00 0.00 49 1005.3
20260505010817 49 315 8.0 20.0 0.00 0.00 0.00 47 1005.3
20260505010720 49 349 9.0 20.0 0.00 0.00 0.00 47 1005.2
20260505010624 49 351 11.0 20.0 0.00 0.00 0.00 47 1005.3
20260505010530 49 344 12.0 20.0 0.00 0.00 0.00 47 1005.2
20260505010406 49 346 13.0 20.0 0.00 0.00 0.00 48 1005.1
20260505010309 49 346 12.0 19.0 0.00 0.00 0.00 47 1005.2
20260505010233 49 20 13.0 23.0 0.00 0.00 0.00 47 1005.1
20260505010116 49 28 12.0 23.0 0.00 0.00 0.00 48 1005.2
20260505010018 49 325 10.0 23.0 0.00 0.00 0.00 48 1005.2
20260505005942 49 344 10.0 23.0 0.00 0.00 0.00 48 1005.0
20260505005807 49 312 12.0 23.0 0.00 0.00 0.00 48 1005.0
20260505005711 49 5 12.0 23.0 0.00 0.00 0.00 48 1005.1
20260505005612 49 360 12.0 23.0 0.00 0.00 0.00 48 1005.0
20260505005515 49 11 11.0 23.0 0.00 0.00 0.00 48 1005.0
20260505005418 49 360 12.0 23.0 0.00 0.00 0.00 48 1005.0
20260505005342 49 5 15.0 23.0 0.00 0.00 0.00 48 1005.0
20260505005224 49 350 15.0 23.0 0.00 0.00 0.00 48 1005.0
20260505005152 49 16 15.0 23.0 0.00 0.00 0.00 48 1005.0
20260505005006 49 342 14.0 23.0 0.00 0.00 0.00 48 1005.0
20260505004930 49 351 11.0 22.0 0.00 0.00 0.00 50 1004.9
20260505004813 49 360 11.0 22.0 0.00 0.00 0.00 49 1005.0
20260505004716 49 327 13.0 22.0 0.00 0.00 0.00 48 1005.0
20260505004619 49 342 12.0 19.0 0.00 0.00 0.00 49 1005.0
20260505004506 49 9 13.0 19.0 0.00 0.00 0.00 49 1005.0
20260505004409 49 338 11.0 19.0 0.00 0.00 0.00 49 1005.0
20260505004312 49 355 11.0 19.0 0.00 0.00 0.00 49 1004.9
20260505004235 49 17 13.0 19.0 0.00 0.00 0.00 48 1004.9
20260505004138 49 23 13.0 19.0 0.00 0.00 0.00 49 1004.8
20260505004020 49 32 12.0 18.0 0.00 0.00 0.00 50 1004.8
20260505003923 49 355 10.0 18.0 0.00 0.00 0.00 49 1004.9
20260505003812 49 344 11.0 25.0 0.00 0.00 0.00 48 1004.9
20260505003736 49 345 12.0 25.0 0.00 0.00 0.00 49 1004.9
20260505003618 49 17 12.0 25.0 0.00 0.00 0.00 49 1004.9
20260505003522 49 317 10.0 25.0 0.00 0.00 0.00 49 1004.9
20260505003406 49 5 12.0 25.0 0.00 0.00 0.00 48 1004.9
20260505003330 50 340 12.0 25.0 0.00 0.00 0.00 48 1004.9
20260505003207 50 12 11.0 25.0 0.00 0.00 0.00 48 1004.9
20260505003116 50 5 11.0 25.0 0.00 0.00 0.00 48 1004.9
20260505003020 50 334 12.0 25.0 0.00 0.00 0.00 48 1004.8
20260505002905 50 360 13.0 23.0 0.00 0.00 0.00 47 1004.8
20260505002828 50 350 13.0 23.0 0.00 0.00 0.00 47 1004.7
20260505002705 50 5 12.0 23.0 0.00 0.00 0.00 47 1004.7
20260505002610 50 5 15.0 23.0 0.00 0.00 0.00 47 1004.7
20260505002537 50 350 17.0 23.0 0.00 0.00 0.00 47 1004.6
20260505002440 50 17 15.0 23.0 0.00 0.00 0.00 47 1004.7
20260505002343 50 344 12.0 21.0 0.00 0.00 0.00 48 1004.6
20260505002226 50 338 13.0 21.0 0.00 0.00 0.00 47 1004.7
20260505002130 50 355 12.0 21.0 0.00 0.00 0.00 48 1004.6
20260505002011 50 5 11.0 21.0 0.00 0.00 0.00 48 1004.6
20260505001914 50 53 12.0 21.0 0.00 0.00 0.00 48 1004.6
20260505001818 50 38 13.0 21.0 0.00 0.00 0.00 47 1004.6
20260505001706 50 355 11.0 21.0 0.00 0.00 0.00 47 1004.6
20260505001630 51 17 12.0 21.0 0.00 0.00 0.00 47 1004.5
20260505001513 51 306 13.0 21.0 0.00 0.00 0.00 48 1004.5
20260505001418 51 338 12.0 26.0 0.00 0.00 0.00 48 1004.5
20260505001322 51 337 11.0 26.0 0.00 0.00 0.00 47 1004.6
20260505001206 51 344 12.0 26.0 0.00 0.00 0.00 46 1004.5
20260505001111 51 355 13.0 26.0 0.00 0.00 0.00 46 1004.5
20260505001018 51 333 14.0 26.0 0.00 0.00 0.00 46 1004.4
20260505000922 51 331 12.0 27.0 0.00 0.00 0.00 46 1004.4
20260505000827 51 13 13.0 27.0 0.00 0.00 0.00 46 1004.4
20260505000751 51 360 17.0 27.0 0.00 0.00 0.00 45 1004.4
20260505000606 51 333 16.0 27.0 0.00 0.00 0.00 45 1004.4
20260505000508 51 336 15.0 27.0 0.00 0.00 0.00 45 1004.3
20260505000417 52 30 16.0 27.0 0.00 0.00 0.00 45 1004.4
20260505000340 52 5 17.0 27.0 0.00 0.00 0.00 45 1004.3
20260505000204 52 350 16.0 27.0 0.00 0.00 0.00 45 1004.3
20260505000128 52 327 16.0 27.0 0.00 0.00 0.00 45 1004.2
20260505000005 52 5 12.0 24.0 0.00 0.00 0.00 45 1004.2
20260504235910 52 360 11.0 19.0 0.00 0.00 0.00 45 1004.3
20260504235814 52 5 11.0 22.0 0.00 0.00 0.00 44 1004.2
20260504235741 52 348 11.0 22.0 0.00 0.00 0.00 44 1004.1
20260504235605 52 346 12.0 22.0 0.00 0.00 0.00 44 1004.0
20260504235509 52 22 11.0 22.0 0.00 0.00 0.00 44 1004.1
20260504235413 52 335 10.0 22.0 0.00 0.00 0.00 44 1004.1
20260504235318 52 336 9.0 22.0 0.00 0.00 0.00 45 1004.1
20260504235242 52 355 10.0 22.0 0.00 0.00 0.00 45 1004.1
20260504235145 52 343 13.0 22.0 0.00 0.00 0.00 44 1004.1
20260504235012 52 343 16.0 22.0 0.00 0.00 0.00 43 1004.0
20260504234936 52 323 15.0 22.0 0.00 0.00 0.00 43 1004.0
20260504234819 53 323 13.0 20.0 0.00 0.00 0.00 44 1004.0
20260504234723 53 336 10.0 20.0 0.00 0.00 0.00 45 1003.9
20260504234648 53 346 12.0 20.0 0.00 0.00 0.00 44 1004.0
20260504234504 53 348 14.0 20.0 0.00 0.00 0.00 44 1004.0
20260504234408 53 348 14.0 20.0 0.00 0.00 0.00 44 1004.0
20260504234316 53 355 12.0 20.0 0.00 0.00 0.00 44 1003.8
20260504234220 53 355 11.0 20.0 0.00 0.00 0.00 44 1003.9
20260504234105 53 13 10.0 20.0 0.00 0.00 0.00 44 1003.8
20260504234009 53 344 10.0 23.0 0.00 0.00 0.00 44 1003.9
20260504233912 53 5 12.0 23.0 0.00 0.00 0.00 44 1003.9
20260504233817 53 5 10.0 24.0 0.00 0.00 0.00 44 1003.9
20260504233705 53 5 10.0 24.0 0.00 0.00 0.00 44 1003.9
20260504233630 53 355 11.0 24.0 0.00 0.00 0.00 43 1003.9
20260504233512 53 350 11.0 24.0 0.00 0.00 0.00 43 1003.8
20260504233417 53 5 11.0 25.0 0.00 0.00 0.00 44 1003.8
20260504233321 53 348 13.0 25.0 0.00 0.00 0.00 44 1003.7
20260504233206 53 17 16.0 25.0 0.00 0.00 0.00 42 1003.8
20260504233114 53 355 16.0 25.0 0.00 0.00 0.00 42 1003.6
20260504233019 53 360 14.0 25.0 0.00 0.00 0.00 43 1003.8
20260504232923 53 5 14.0 25.0 0.00 0.00 0.00 44 1003.8
20260504232828 53 331 16.0 25.0 0.00 0.00 0.00 44 1003.7
20260504232710 53 355 16.0 25.0 0.00 0.00 0.00 43 1003.7
20260504232614 54 23 17.0 25.0 0.00 0.00 0.00 43 1003.6
20260504232523 54 30 18.0 24.0 0.00 0.00 0.00 43 1003.7
20260504232427 54 10 18.0 24.0 0.00 0.00 0.00 43 1003.6
20260504232330 54 21 16.0 24.0 0.00 0.00 0.00 43 1003.6
20260504232207 54 338 15.0 24.0 0.00 0.00 0.00 43 1003.6
20260504232130 54 325 15.0 24.0 0.00 0.00 0.00 44 1003.7
20260504232013 54 22 10.0 22.0 0.00 0.00 0.00 45 1003.5
20260504231939 53 339 9.0 19.0 0.00 0.00 0.00 45 1003.6
20260504231805 53 9 11.0 21.0 0.00 0.00 0.00 44 1003.6
20260504231729 53 344 12.0 21.0 0.00 0.00 0.00 45 1003.6
20260504231606 53 328 12.0 21.0 0.00 0.00 0.00 45 1003.5
20260504231511 53 360 12.0 21.0 0.00 0.00 0.00 45 1003.6
20260504231436 53 334 11.0 21.0 0.00 0.00 0.00 45 1003.6
20260504231319 54 292 11.0 21.0 0.00 0.00 0.00 44 1003.6
20260504231222 54 11 14.0 21.0 0.00 0.00 0.00 44 1003.6
20260504231111 54 360 15.0 21.0 0.00 0.00 0.00 43 1003.6
20260504231015 54 355 14.0 21.0 0.00 0.00 0.00 44 1003.5
20260504230920 54 17 14.0 21.0 0.00 0.00 0.00 43 1003.5
20260504230823 54 350 13.0 24.0 0.00 0.00 0.00 44 1003.6
20260504230728 54 347 10.0 24.0 0.00 0.00 0.00 45 1003.5
20260504230611 54 343 12.0 24.0 0.00 0.00 0.00 43 1003.6
20260504230520 54 347 12.0 24.0 0.00 0.00 0.00 43 1003.5
20260504230404 54 351 13.0 24.0 0.00 0.00 0.00 43 1003.5
20260504230328 54 38 13.0 24.0 0.00 0.00 0.00 43 1003.5
20260504230205 54 323 13.0 24.0 0.00 0.00 0.00 43 1003.5
20260504230129 54 346 14.0 24.0 0.00 0.00 0.00 43 1003.5
20260504230012 54 355 15.0 24.0 0.00 0.00 0.00 42 1003.5
20260504225936 55 339 12.0 24.0 0.00 0.00 0.00 44 1003.5
20260504225822 55 348 10.0 24.0 0.00 0.00 0.00 44 1003.5
20260504225707 54 31 12.0 24.0 0.00 0.00 0.00 43 1003.5
20260504225611 54 355 13.0 24.0 0.00 0.00 0.00 43 1003.5
20260504225536 54 351 16.0 24.0 0.00 0.00 0.00 43 1003.5
20260504225438 54 355 14.0 23.0 0.00 0.00 0.00 43 1003.5
20260504225322 54 331 12.0 23.0 0.00 0.00 0.00 44 1003.5
20260504225207 54 335 12.0 18.0 0.00 0.00 0.00 44 1003.4
20260504225135 54 311 11.0 22.0 0.00 0.00 0.00 43 1003.4
20260504225018 54 295 13.0 23.0 0.00 0.00 0.00 44 1003.4
20260504224923 54 319 13.0 23.0 0.00 0.00 0.00 42 1003.4
20260504224809 54 335 11.0 23.0 0.00 0.00 0.00 43 1003.5
20260504224713 55 350 10.0 23.0 0.00 0.00 0.00 43 1003.5
20260504224617 55 317 11.0 23.0 0.00 0.00 0.00 43 1003.4
20260504224505 55 344 12.0 23.0 0.00 0.00 0.00 43 1003.4
20260504224406 55 344 12.0 23.0 0.00 0.00 0.00 44 1003.4
20260504224331 55 360 14.0 23.0 0.00 0.00 0.00 43 1003.4
20260504224207 55 328 17.0 23.0 0.00 0.00 0.00 43 1003.3
20260504224112 55 344 15.0 23.0 0.00 0.00 0.00 44 1003.3
20260504224017 55 355 13.0 23.0 0.00 0.00 0.00 44 1003.2
20260504223906 55 355 10.0 23.0 0.00 0.00 0.00 45 1003.2
20260504223810 55 327 8.0 23.0 0.00 0.00 0.00 46 1003.2
20260504223716 55 5 9.0 23.0 0.00 0.00 0.00 45 1003.2
20260504223620 55 355 10.0 23.0 0.00 0.00 0.00 44 1003.2
20260504223505 55 350 12.0 23.0 0.00 0.00 0.00 44 1003.2
20260504223430 55 14 14.0 23.0 0.00 0.00 0.00 44 1003.1
20260504223313 55 351 15.0 23.0 0.00 0.00 0.00 43 1003.1
20260504223222 55 338 13.0 24.0 0.00 0.00 0.00 43 1003.1
20260504223127 55 11 9.0 24.0 0.00 0.00 0.00 45 1003.0
20260504223030 55 348 8.0 24.0 0.00 0.00 0.00 45 1003.2
20260504222905 54 5 11.0 24.0 0.00 0.00 0.00 44 1003.0
20260504222809 54 346 15.0 24.0 0.00 0.00 0.00 43 1003.0
20260504222714 54 355 15.0 24.0 0.00 0.00 0.00 44 1002.9
20260504222621 54 344 16.0 24.0 0.00 0.00 0.00 45 1002.9
20260504222505 55 360 16.0 25.0 0.00 0.00 0.00 43 1002.9
20260504222429 55 355 17.0 27.0 0.00 0.00 0.00 44 1002.8
20260504222313 55 350 17.0 27.0 0.00 0.00 0.00 44 1002.9
20260504222217 55 346 13.0 27.0 0.00 0.00 0.00 45 1002.8
20260504222120 55 360 10.0 27.0 0.00 0.00 0.00 44 1002.8
20260504222009 55 340 11.0 27.0 0.00 0.00 0.00 45 1002.8
20260504221912 55 331 14.0 27.0 0.00 0.00 0.00 45 1002.8
20260504221816 55 355 16.0 27.0 0.00 0.00 0.00 45 1002.8
20260504221720 55 333 17.0 27.0 0.00 0.00 0.00 45 1002.9
20260504221644 55 334 13.0 27.0 0.00 0.00 0.00 45 1002.8
20260504221526 55 355 8.0 26.0 0.00 0.00 0.00 46 1002.7
20260504221409 55 355 7.0 26.0 0.00 0.00 0.00 46 1002.7
20260504221332 55 346 8.0 26.0 0.00 0.00 0.00 46 1002.7
20260504221218 55 332 8.0 26.0 0.00 0.00 0.00 45 1002.7
20260504221122 55 17 9.0 26.0 0.00 0.00 0.00 44 1002.7
20260504221007 55 322 14.0 26.0 0.00 0.00 0.00 45 1002.7
20260504220911 55 323 15.0 26.0 0.00 0.00 0.00 45 1002.7
20260504220815 55 348 18.0 26.0 0.00 0.00 0.00 44 1002.7
20260504220720 55 333 17.0 26.0 0.00 0.00 0.00 43 1002.6
20260504220628 55 335 13.0 23.0 0.00 0.00 0.00 45 1002.6
20260504220505 55 21 14.0 23.0 0.00 0.00 0.00 44 1002.6
20260504220409 55 310 16.0 23.0 0.00 0.00 0.00 44 1002.5
20260504220314 55 355 13.0 23.0 0.00 0.00 0.00 45 1002.5
20260504220237 55 345 12.0 23.0 0.00 0.00 0.00 46 1002.6
20260504220141 55 360 13.0 22.0 0.00 0.00 0.00 45 1002.5
20260504220043 55 344 13.0 22.0 0.00 0.00 0.00 46 1002.5
20260504215911 55 328 14.0 22.0 0.00 0.00 0.00 45 1002.6
20260504215835 55 342 13.0 23.0 0.00 0.00 0.00 45 1002.5
20260504215718 55 338 11.0 23.0 0.00 0.00 0.00 46 1002.5
20260504215621 55 39 12.0 23.0 0.00 0.00 0.00 46 1002.5
20260504215506 55 355 13.0 23.0 0.00 0.00 0.00 46 1002.5
20260504215409 55 316 12.0 23.0 0.00 0.00 0.00 46 1002.4
20260504215335 55 335 12.0 23.0 0.00 0.00 0.00 46 1002.4
20260504215238 55 323 12.0 23.0 0.00 0.00 0.00 46 1002.4
20260504215145 56 360 13.0 25.0 0.00 0.00 0.00 45 1002.4
20260504215028 56 5 15.0 25.0 0.00 0.00 0.00 46 1002.4
20260504214905 56 22 13.0 25.0 0.00 0.00 0.00 46 1002.3
20260504214810 56 348 13.0 25.0 0.00 0.00 0.00 45 1002.3
20260504214736 56 5 14.0 25.0 0.00 0.00 0.00 45 1002.3
20260504214639 56 17 15.0 25.0 0.00 0.00 0.00 45 1002.3
20260504214522 57 16 15.0 25.0 0.00 0.00 0.00 45 1002.3
20260504214410 57 19 17.0 25.0 0.00 0.00 0.00 46 1002.1
20260504214315 57 360 15.0 25.0 0.00 0.00 0.00 46 1002.3
20260504214219 57 13 11.0 25.0 0.00 0.00 0.00 47 1002.2
20260504214123 56 38 13.0 25.0 0.00 0.00 0.00 46 1002.2
20260504214027 56 327 17.0 26.0 0.00 0.00 0.00 46 1002.2
20260504213910 56 35 16.0 26.0 0.00 0.00 0.00 45 1002.1
20260504213819 56 5 12.0 26.0 0.00 0.00 0.00 46 1002.1
20260504213723 56 24 11.0 26.0 0.00 0.00 0.00 46 1002.1
20260504213608 56 12 12.0 26.0 0.00 0.00 0.00 46 1002.1
20260504213513 56 13 13.0 26.0 0.00 0.00 0.00 44 1002.2
20260504213417 56 355 17.0 26.0 0.00 0.00 0.00 44 1002.2
20260504213322 56 9 17.0 26.0 0.00 0.00 0.00 44 1002.1
20260504213209 56 344 16.0 26.0 0.00 0.00 0.00 44 1002.1
20260504213113 56 338 17.0 25.0 0.00 0.00 0.00 45 1002.1
20260504213037 56 5 18.0 25.0 0.00 0.00 0.00 45 1002.0
20260504212920 56 351 15.0 22.0 0.00 0.00 0.00 47 1002.0
20260504212844 56 355 13.0 23.0 0.00 0.00 0.00 46 1002.0
20260504212728 56 38 13.0 23.0 0.00 0.00 0.00 47 1002.0
20260504212606 55 347 15.0 23.0 0.00 0.00 0.00 46 1002.0
20260504212514 55 19 15.0 23.0 0.00 0.00 0.00 47 1002.1
20260504212439 55 34 13.0 25.0 0.00 0.00 0.00 46 1002.0
20260504212323 55 9 13.0 25.0 0.00 0.00 0.00 46 1002.0
20260504212226 56 346 15.0 25.0 0.00 0.00 0.00 46 1002.0
20260504212110 56 355 15.0 25.0 0.00 0.00 0.00 46 1002.0
20260504212015 56 355 14.0 25.0 0.00 0.00 0.00 47 1002.0
20260504211918 56 360 12.0 25.0 0.00 0.00 0.00 48 1002.0
20260504211827 56 26 14.0 25.0 0.00 0.00 0.00 46 1001.9
20260504211751 56 15 15.0 25.0 0.00 0.00 0.00 46 1002.0
20260504211607 56 346 14.0 25.0 0.00 0.00 0.00 47 1002.1
20260504211511 56 360 12.0 22.0 0.00 0.00 0.00 46 1001.9
20260504211414 56 360 13.0 22.0 0.00 0.00 0.00 48 1002.0
20260504211319 56 329 15.0 22.0 0.00 0.00 0.00 47 1002.0
20260504211206 56 315 12.0 22.0 0.00 0.00 0.00 49 1001.8
20260504211131 56 355 9.0 21.0 0.00 0.00 0.00 49 1001.9
20260504211007 56 350 9.0 22.0 0.00 0.00 0.00 48 1002.0
20260504210910 56 355 8.0 22.0 0.00 0.00 0.00 49 1001.9
20260504210814 56 346 7.0 22.0 0.00 0.00 0.00 51 1002.0
20260504210719 56 340 10.0 22.0 0.00 0.00 0.00 48 1002.0
20260504210626 56 343 12.0 22.0 0.00 0.00 0.00 47 1002.0
20260504210551 56 349 14.0 22.0 0.00 0.00 0.00 48 1001.9
20260504210406 56 309 14.0 22.0 0.00 0.00 0.00 47 1001.9
20260504210329 56 355 13.0 22.0 0.00 0.00 0.00 48 1001.9
20260504210212 56 5 14.0 22.0 0.00 0.00 0.00 48 1001.9
20260504210116 56 5 13.0 19.0 0.00 0.00 0.00 48 1001.8
20260504210020 56 25 12.0 19.0 0.00 0.00 0.00 48 1001.8
20260504205928 56 9 10.0 19.0 0.00 0.00 0.00 48 1001.8
20260504205851 56 355 11.0 22.0 0.00 0.00 0.00 48 1001.8
20260504205707 56 5 10.0 22.0 0.00 0.00 0.00 46 1001.9
20260504205610 56 336 8.0 22.0 0.00 0.00 0.00 46 1001.8
20260504205513 56 35 11.0 22.0 0.00 0.00 0.00 46 1001.8
20260504205416 57 360 13.0 23.0 0.00 0.00 0.00 46 1001.7
20260504205319 57 347 12.0 23.0 0.00 0.00 0.00 45 1001.8
20260504205206 57 304 13.0 23.0 0.00 0.00 0.00 46 1001.7
20260504205129 57 340 15.0 23.0 0.00 0.00 0.00 45 1001.8
20260504205011 57 19 16.0 23.0 0.00 0.00 0.00 46 1001.7
20260504204914 58 343 14.0 23.0 0.00 0.00 0.00 46 1001.7
20260504204818 58 315 14.0 23.0 0.00 0.00 0.00 46 1001.6
20260504204720 58 332 16.0 23.0 0.00 0.00 0.00 46 1001.7
20260504204608 58 360 14.0 23.0 0.00 0.00 0.00 45 1001.6
20260504204531 58 42 12.0 19.0 0.00 0.00 0.00 46 1001.6
20260504204434 59 360 11.0 19.0 0.00 0.00 0.00 46 1001.5
20260504204315 59 65 11.0 19.0 0.00 0.00 0.00 47 1001.6
20260504204218 59 9 12.0 19.0 0.00 0.00 0.00 46 1001.6
20260504204121 59 360 12.0 22.0 0.00 0.00 0.00 46 1001.6
20260504204022 59 9 12.0 23.0 0.00 0.00 0.00 45 1001.6
20260504203931 59 19 12.0 23.0 0.00 0.00 0.00 46 1001.6
20260504203806 59 325 11.0 23.0 0.00 0.00 0.00 48 1001.7
20260504203709 58 287 10.0 23.0 0.00 0.00 0.00 47 1001.6
20260504203611 58 337 12.0 23.0 0.00 0.00 0.00 47 1001.6
20260504203515 58 360 14.0 23.0 0.00 0.00 0.00 46 1001.6
20260504203417 58 5 15.0 23.0 0.00 0.00 0.00 46 1001.6
20260504203306 58 360 16.0 23.0 0.00 0.00 0.00 47 1001.5
20260504203207 58 13 13.0 23.0 0.00 0.00 0.00 48 1001.5
20260504203131 58 360 12.0 23.0 0.00 0.00 0.00 48 1001.5
20260504203014 58 5 12.0 23.0 0.00 0.00 0.00 47 1001.5
20260504202917 58 346 12.0 23.0 0.00 0.00 0.00 47 1001.5
20260504202820 58 5 12.0 23.0 0.00 0.00 0.00 47 1001.5
20260504202708 57 30 13.0 23.0 0.00 0.00 0.00 48 1001.5
20260504202610 57 11 13.0 23.0 0.00 0.00 0.00 50 1001.5
20260504202513 57 355 14.0 23.0 0.00 0.00 0.00 49 1001.5
20260504202417 57 345 14.0 23.0 0.00 0.00 0.00 48 1001.6
20260504202319 57 5 12.0 23.0 0.00 0.00 0.00 49 1001.5
20260504202243 56 31 11.0 29.0 0.00 0.00 0.00 49 1001.5
20260504202123 56 347 13.0 29.0 0.00 0.00 0.00 49 1001.5
20260504202031 56 5 14.0 29.0 0.00 0.00 0.00 47 1001.4
20260504201907 57 38 12.0 29.0 0.00 0.00 0.00 48 1001.4
20260504201810 57 36 12.0 29.0 0.00 0.00 0.00 48 1001.4
20260504201733 57 355 13.0 29.0 0.00 0.00 0.00 47 1001.4
20260504201615 57 351 14.0 29.0 0.00 0.00 0.00 48 1001.5
20260504201519 57 19 16.0 29.0 0.00 0.00 0.00 48 1001.5
20260504201406 57 5 14.0 29.0 0.00 0.00 0.00 49 1001.4
20260504201328 57 5 12.0 25.0 0.00 0.00 0.00 48 1001.5
20260504201205 57 19 12.0 25.0 0.00 0.00 0.00 48 1001.5
20260504201107 57 360 14.0 25.0 0.00 0.00 0.00 48 1001.5
20260504201012 57 22 13.0 25.0 0.00 0.00 0.00 48 1001.3
20260504200915 57 10 13.0 25.0 0.00 0.00 0.00 47 1001.4
20260504200817 57 355 14.0 25.0 0.00 0.00 0.00 47 1001.4
20260504200705 58 40 16.0 25.0 0.00 0.00 0.00 47 1001.4
20260504200629 58 36 18.0 25.0 0.00 0.00 0.00 47 1001.3
20260504200531 58 32 17.0 25.0 0.00 0.00 0.00 47 1001.3
20260504200406 58 9 15.0 25.0 0.00 0.00 0.00 47 1001.4
20260504200330 59 348 16.0 25.0 0.00 0.00 0.00 48 1001.2
20260504200212 59 15 16.0 26.0 0.00 0.00 0.00 46 1001.3
20260504200115 59 355 16.0 26.0 0.00 0.00 0.00 45 1001.2
20260504200022 59 342 12.0 26.0 0.00 0.00 0.00 45 1001.1
20260504195926 59 355 9.0 26.0 0.00 0.00 0.00 45 1001.0
20260504195808 60 355 12.0 26.0 0.00 0.00 0.00 46 1000.9
20260504195712 60 5 15.0 26.0 0.00 0.00 0.00 45 1001.0
20260504195615 60 348 17.0 26.0 0.00 0.00 0.00 43 1001.2
20260504195518 60 360 15.0 26.0 0.00 0.00 0.00 45 1001.1
20260504195406 60 355 11.0 20.0 0.00 0.00 0.00 46 1000.9
20260504195329 60 5 13.0 22.0 0.00 0.00 0.00 45 1001.0
20260504195204 60 305 13.0 25.0 0.00 0.00 0.00 47 1001.1
20260504195109 60 360 12.0 25.0 0.00 0.00 0.00 47 1001.1
20260504195011 60 5 12.0 25.0 0.00 0.00 0.00 47 1001.0
20260504194915 59 349 12.0 25.0 0.00 0.00 0.00 46 1001.1
20260504194822 59 340 12.0 25.0 0.00 0.00 0.00 46 1001.0
20260504194725 59 13 14.0 25.0 0.00 0.00 0.00 47 1000.9
20260504194608 59 341 16.0 25.0 0.00 0.00 0.00 46 1000.9
20260504194511 59 331 18.0 25.0 0.00 0.00 0.00 47 1001.0
20260504194417 59 348 16.0 25.0 0.00 0.00 0.00 46 1001.0
20260504194340 59 5 15.0 22.0 0.00 0.00 0.00 48 1000.9
20260504194223 59 355 16.0 22.0 0.00 0.00 0.00 46 1001.1
20260504194129 59 9 17.0 22.0 0.00 0.00 0.00 47 1001.0
20260504194005 59 5 14.0 22.0 0.00 0.00 0.00 47 1001.0
20260504193907 59 360 13.0 20.0 0.00 0.00 0.00 47 1000.9
20260504193812 59 14 11.0 20.0 0.00 0.00 0.00 46 1000.9
20260504193715 59 11 12.0 21.0 0.00 0.00 0.00 46 1001.0
20260504193619 59 351 12.0 21.0 0.00 0.00 0.00 45 1000.9
20260504193540 59 31 9.0 21.0 0.00 0.00 0.00 47 1001.0
20260504193428 59 321 7.0 21.0 0.00 0.00 0.00 47 1000.8
20260504193304 59 336 10.0 25.0 0.00 0.00 0.00 48 1000.7
20260504193207 59 350 11.0 25.0 0.00 0.00 0.00 47 1000.8
20260504193111 60 15 12.0 25.0 0.00 0.00 0.00 47 1000.7
20260504193037 60 37 13.0 25.0 0.00 0.00 0.00 46 1000.9
20260504192919 60 28 14.0 25.0 0.00 0.00 0.00 46 1000.8
20260504192808 60 340 13.0 25.0 0.00 0.00 0.00 48 1000.8
20260504192711 60 347 14.0 25.0 0.00 0.00 0.00 46 1000.7
20260504192617 60 320 13.0 25.0 0.00 0.00 0.00 48 1000.9
20260504192520 60 325 13.0 25.0 0.00 0.00 0.00 47 1000.9
20260504192423 60 5 13.0 22.0 0.00 0.00 0.00 45 1000.6
20260504192308 60 10 12.0 22.0 0.00 0.00 0.00 47 1000.7
20260504192217 60 5 11.0 22.0 0.00 0.00 0.00 49 1000.7
20260504192121 60 13 11.0 22.0 0.00 0.00 0.00 48 1000.6
20260504192006 60 334 13.0 22.0 0.00 0.00 0.00 47 1000.7
20260504191931 60 350 13.0 22.0 0.00 0.00 0.00 48 1000.7